M I D A S
Marine Information and Data Acquisition System
Tripno 1511 of the Zeeleeuw from 2008-06-26 07:06:18 to 2008-06-26 14:06:15
Back to CruiseResearch ActivitiesStationsMapUnderway DataData graphs

EquipmentUnitsComment
TimeDGPSUTC
LatitudeDGPSDM.mWGS84
LongitudeDGPSDM.mWGS84
TemperatureSBE03/SBE38deg celciusITS90
ConductivitySBE21S/mITS90
SalinitySBE21 Practical Salinity Units
ChlorophylAChelsea fluorimeterg/lCalibrated in Aceton
Missing or incorrect values are displayed as -999
Sea surface data collected by the RV Zeeleeuw from 2008-06-26 07:00:21 to 2008-06-26 14:08:35
                                                                                    Next 1000 lines
Time Latitude Longitude Temperature Conductivity Salinity ChlorophylA
2008-06-26 07:00:32 51°13.623 2°56.044 21.2859 0.011748 0.063212 -1.627401
2008-06-26 07:00:36 51°13.624 2°56.042 21.2874 0.011748 0.063212 -1.627401
2008-06-26 07:00:42 51°13.625 2°56.039 21.2861 0.011748 0.063213 -1.627401
2008-06-26 07:00:46 51°13.626 2°56.036 21.2875 0.011748 0.063214 -1.627401
2008-06-26 07:00:52 51°13.628 2°56.03 21.2864 0.011748 0.063215 -1.627401
2008-06-26 07:00:57 51°13.629 2°56.025 21.2899 0.011748 0.063215 -1.627401
2008-06-26 07:01:02 51°13.631 2°56.019 21.2895 0.011748 0.063215 -1.627401
2008-06-26 07:01:07 51°13.633 2°56.013 21.2904 0.011748 0.063216 -1.627401
2008-06-26 07:01:12 51°13.636 2°56.006 21.2906 0.011748 0.063216 -1.627401
2008-06-26 07:01:17 51°13.638 2°55.998 21.291 0.011748 0.063216 -1.627401
2008-06-26 07:01:22 51°13.641 2°55.99 21.2913 0.011748 0.063217 -1.627401
2008-06-26 07:01:27 51°13.643 2°55.982 21.2931 0.011748 0.063217 -1.627401
2008-06-26 07:01:32 51°13.646 2°55.973 21.2923 0.011748 0.063217 -1.627401
2008-06-26 07:01:37 51°13.649 2°55.964 21.2923 0.011748 0.063218 -1.627401
2008-06-26 07:01:42 51°13.652 2°55.954 21.2918 0.011748 0.063218 -1.627401
2008-06-26 07:01:47 51°13.654 2°55.945 21.2921 0.011748 0.063219 -1.627401
2008-06-26 07:01:52 51°13.657 2°55.935 21.2935 0.011748 0.063219 -1.627401
2008-06-26 07:01:56 51°13.659 2°55.927 21.2946 0.011748 0.063219 -1.627401
2008-06-26 07:02:02 51°13.663 2°55.915 21.2953 0.011748 0.06322 -1.627401
2008-06-26 07:02:07 51°13.666 2°55.905 21.2936 0.011748 0.06322 -1.627401
2008-06-26 07:02:12 51°13.668 2°55.895 21.2951 0.011748 0.06322 -1.627401
2008-06-26 07:02:17 51°13.671 2°55.885 21.2947 0.011748 0.06322 -1.627401
2008-06-26 07:02:22 51°13.673 2°55.875 21.2945 0.011748 0.06322 -1.627401
2008-06-26 07:02:27 51°13.676 2°55.865 21.2945 0.011748 0.06322 -1.627401
2008-06-26 07:02:32 51°13.678 2°55.856 21.2952 0.011748 0.063221 -1.627401
2008-06-26 07:02:37 51°13.68 2°55.848 21.2953 0.011748 0.063221 -1.627401
2008-06-26 07:02:42 51°13.681 2°55.839 21.2961 0.011748 0.063221 -1.627401
2008-06-26 07:02:47 51°13.683 2°55.831 21.296 0.011748 0.063222 -1.627401
2008-06-26 07:02:52 51°13.684 2°55.823 21.2966 0.011748 0.063222 -1.627401
2008-06-26 07:02:57 51°13.686 2°55.815 21.2963 0.011748 0.063223 -1.662225
2008-06-26 07:03:02 51°13.687 2°55.807 21.2983 0.011748 0.063223 -1.627401
2008-06-26 07:03:06 51°13.687 2°55.801 21.2963 0.011748 0.063223 -1.627401
2008-06-26 07:03:12 51°13.689 2°55.793 21.2976 0.011748 0.063223 -1.662225
2008-06-26 07:03:17 51°13.689 2°55.786 21.2978 0.011748 0.063224 -1.627401
2008-06-26 07:03:21 51°13.69 2°55.781 21.2984 0.011748 0.063224 -1.627401
2008-06-26 07:03:27 51°13.69 2°55.774 21.296 0.011748 0.063225 -1.627401
2008-06-26 07:03:31 51°13.691 2°55.769 21.297 0.011748 0.063225 -1.627401
2008-06-26 07:03:37 51°13.691 2°55.763 21.3003 0.011748 0.063226 -1.627401
2008-06-26 07:03:41 51°13.691 2°55.758 21.3 0.011748 0.063227 -1.627401
2008-06-26 07:03:47 51°13.691 2°55.752 21.3013 0.011748 0.063227 -1.627401
2008-06-26 07:03:52 51°13.691 2°55.747 21.2991 0.011748 0.063227 -1.627401
2008-06-26 07:03:56 51°13.691 2°55.743 21.3011 0.011748 0.063228 -1.627401
2008-06-26 07:04:01 51°13.691 2°55.739 21.3006 0.011748 0.063229 -1.627401
2008-06-26 07:04:07 51°13.691 2°55.733 21.301 0.011748 0.063229 -1.627401
2008-06-26 07:04:12 51°13.691 2°55.729 21.3023 0.011748 0.06323 -1.627401
2008-06-26 07:04:16 51°13.691 2°55.727 21.3042 0.011748 0.06323 -1.627401
2008-06-26 07:04:22 51°13.691 2°55.726 21.306 0.011748 0.06323 -1.627401
2008-06-26 07:04:27 51°13.692 2°55.726 21.3047 0.011748 0.06323 -1.627401
2008-06-26 07:04:32 51°13.692 2°55.727 21.3044 0.011748 0.06323 -1.627401
2008-06-26 07:04:36 51°13.693 2°55.728 21.3036 0.011748 0.063231 -1.627401
2008-06-26 07:04:41 51°13.694 2°55.729 21.3053 0.011748 0.063231 -1.627401
2008-06-26 07:04:47 51°13.696 2°55.731 21.3048 0.011748 0.063231 -1.627401
2008-06-26 07:04:52 51°13.697 2°55.733 21.3048 0.011645 0.062723 -1.627401
2008-06-26 07:04:56 51°13.699 2°55.735 21.3055 0.011748 0.063232 -1.627401
2008-06-26 07:05:01 51°13.701 2°55.736 21.3053 0.011748 0.063232 -1.627401
2008-06-26 07:05:06 51°13.704 2°55.738 21.3047 0.011748 0.063232 -1.627401
2008-06-26 07:05:12 51°13.707 2°55.739 21.3065 0.011748 0.063232 -1.627401
2008-06-26 07:05:17 51°13.71 2°55.74 21.306 0.011748 0.063232 -1.627401
2008-06-26 07:05:21 51°13.712 2°55.74 21.3066 0.011748 0.063232 -1.627401
2008-06-26 07:05:27 51°13.716 2°55.74 21.307 0.011748 0.063232 -1.627401
2008-06-26 07:05:32 51°13.72 2°55.74 21.3105 0.011748 0.063231 -1.627401
2008-06-26 07:05:36 51°13.723 2°55.739 21.3113 0.011748 0.063231 -1.627401
2008-06-26 07:05:41 51°13.727 2°55.737 21.314 0.011748 0.063231 -1.627401
2008-06-26 07:05:46 51°13.732 2°55.733 21.3076 0.011748 0.063231 -1.627401
2008-06-26 07:05:52 51°13.739 2°55.728 21.3055 0.011748 0.063231 -1.627401
2008-06-26 07:05:57 51°13.745 2°55.722 21.3023 0.011645 0.062722 -1.627401
2008-06-26 07:06:01 51°13.749 2°55.717 21.3031 0.011748 0.06323 -1.662225
2008-06-26 07:06:07 51°13.758 2°55.708 21.302 0.011748 0.06323 -1.662225
2008-06-26 07:06:12 51°13.765 2°55.7 21.304 0.011748 0.063229 -1.627401
2008-06-26 07:06:17 51°13.773 2°55.692 21.3002 0.011748 0.063228 -1.627401
2008-06-26 07:06:22 51°13.782 2°55.683 21.3016 0.011645 0.062719 -1.627401
2008-06-26 07:06:27 51°13.792 2°55.673 21.3002 0.011748 0.063227 -1.627401
2008-06-26 07:06:32 51°13.802 2°55.664 21.3089 0.011748 0.063227 -1.627401
2008-06-26 07:06:36 51°13.81 2°55.657 21.3089 0.011645 0.062716 -1.627401
2008-06-26 07:06:41 51°13.821 2°55.648 21.3086 0.011645 0.062716 -1.627401
2008-06-26 07:06:47 51°13.833 2°55.637 21.3081 0.011748 0.063224 -1.627401
2008-06-26 07:06:52 51°13.844 2°55.627 21.3096 0.011645 0.062715 -1.627401
2008-06-26 07:06:56 51°13.853 2°55.62 21.309 0.011748 0.063223 -1.662225
2008-06-26 07:07:02 51°13.866 2°55.609 21.3108 0.011748 0.063223 -1.662225
2008-06-26 07:07:07 51°13.877 2°55.6 21.309 0.011645 0.062713 -1.627401
2008-06-26 07:07:12 51°13.889 2°55.591 21.3121 0.011748 0.063222 -1.627401
2008-06-26 07:07:17 51°13.9 2°55.582 21.3116 0.011645 0.062712 -1.627401
2008-06-26 07:07:21 51°13.909 2°55.575 21.3127 0.011645 0.062712 -1.627401
2008-06-26 07:07:27 51°13.923 2°55.564 21.3116 0.011645 0.062712 -1.627401
2008-06-26 07:07:32 51°13.934 2°55.556 21.3145 0.011748 0.06322 -1.627401
2008-06-26 07:07:36 51°13.943 2°55.549 21.3163 0.011748 0.06322 -1.627401
2008-06-26 07:07:42 51°13.957 2°55.538 21.3143 0.011645 0.062711 -1.627401
2008-06-26 07:07:46 51°13.966 2°55.531 21.3153 0.011748 0.06322 -1.627401
2008-06-26 07:07:52 51°13.98 2°55.521 21.3136 0.011645 0.062711 -1.627401
2008-06-26 07:07:56 51°13.989 2°55.514 21.3181 0.011645 0.06271 -1.627401
2008-06-26 07:08:01 51°14.001 2°55.505 21.3188 0.011645 0.06271 -1.627401
2008-06-26 07:08:07 51°14.015 2°55.494 21.3175 0.011645 0.06271 -1.627401
2008-06-26 07:08:12 51°14.026 2°55.485 21.3174 0.011645 0.06271 -1.662225
2008-06-26 07:08:17 51°14.037 2°55.476 21.318 0.011748 0.06322 -1.627401
2008-06-26 07:08:21 51°14.046 2°55.469 21.3161 0.011748 0.063219 -1.627401
2008-06-26 07:08:27 51°14.06 2°55.459 21.325 0.011645 0.06271 -1.627401
2008-06-26 07:08:32 51°14.072 2°55.45 21.3201 0.011645 0.06271 -1.627401
2008-06-26 07:08:36 51°14.081 2°55.443 21.3181 0.011748 0.06322 -1.627401
2008-06-26 07:08:41 51°14.092 2°55.434 21.3198 0.011645 0.06271 -1.627401
2008-06-26 07:08:47 51°14.106 2°55.424 21.323 0.011748 0.063219 -1.627401
2008-06-26 07:08:52 51°14.118 2°55.415 21.3228 0.011645 0.06271 -1.627401
2008-06-26 07:08:56 51°14.127 2°55.407 21.3207 0.011645 0.062711 -1.627401
2008-06-26 07:09:01 51°14.138 2°55.398 21.3242 0.011645 0.062711 -1.627401
2008-06-26 07:09:07 51°14.151 2°55.386 21.3227 0.011645 0.062711 -1.662225
2008-06-26 07:09:12 51°14.163 2°55.376 21.3279 0.011645 0.062711 -1.627401
2008-06-26 07:09:16 51°14.171 2°55.368 21.3281 0.011645 0.062711 -1.627401
2008-06-26 07:09:21 51°14.182 2°55.357 21.3309 0.011645 0.062711 -1.627401
2008-06-26 07:09:27 51°14.195 2°55.343 21.3266 0.011645 0.062712 -1.627401
2008-06-26 07:09:32 51°14.205 2°55.331 21.3263 0.011645 0.062712 -1.627401
2008-06-26 07:09:36 51°14.213 2°55.321 21.3257 0.011645 0.062712 -1.627401
2008-06-26 07:09:41 51°14.223 2°55.308 21.3244 0.011645 0.062712 -1.627401
2008-06-26 07:09:46 51°14.233 2°55.296 21.3288 0.011645 0.062712 -1.627401
2008-06-26 07:09:52 51°14.245 2°55.28 21.3292 0.011645 0.062712 -1.627401
2008-06-26 07:09:56 51°14.252 2°55.269 21.3334 0.011748 0.063221 -1.662225
2008-06-26 07:10:01 51°14.262 2°55.254 21.3317 0.011748 0.063221 -1.662225
2008-06-26 07:10:06 51°14.271 2°55.239 21.3319 0.011645 0.062712 -1.627401
2008-06-26 07:10:12 51°14.282 2°55.22 21.3333 0.011645 0.062713 -1.662225
2008-06-26 07:10:16 51°14.289 2°55.207 21.3326 0.011645 0.062712 -1.627401
2008-06-26 07:10:21 51°14.297 2°55.19 21.3273 0.011645 0.062714 -1.627401
2008-06-26 07:10:26 51°14.306 2°55.173 21.3327 0.011645 0.062713 -1.627401
2008-06-26 07:10:32 51°14.316 2°55.151 21.3232 0.011645 0.062713 -1.627401
2008-06-26 07:10:36 51°14.322 2°55.137 21.3266 0.011645 0.062714 -1.627401
2008-06-26 07:10:41 51°14.331 2°55.118 21.3203 0.011748 0.063223 -1.627401
2008-06-26 07:10:47 51°14.342 2°55.096 21.3262 0.011645 0.062714 -1.627401
2008-06-26 07:10:52 51°14.351 2°55.077 21.3227 0.011645 0.062714 -1.627401
2008-06-26 07:10:56 51°14.359 2°55.062 21.3316 0.011645 0.062713 -1.627401
2008-06-26 07:11:01 51°14.368 2°55.044 21.3339 0.011645 0.062715 -1.627401
2008-06-26 07:11:07 51°14.38 2°55.02 21.3279 0.011645 0.062715 -1.627401
2008-06-26 07:11:12 51°14.391 2°55.001 21.3282 0.011645 0.062715 -1.662225
2008-06-26 07:11:16 51°14.399 2°54.985 21.3333 0.011645 0.062715 -1.627401
2008-06-26 07:11:22 51°14.411 2°54.96 21.3285 0.011748 0.063223 -1.627401
2008-06-26 07:11:27 51°14.422 2°54.939 21.3212 0.011645 0.062715 -1.627401
2008-06-26 07:11:32 51°14.432 2°54.918 21.3254 0.011645 0.062716 -1.627401
2008-06-26 07:11:36 51°14.44 2°54.901 21.3258 0.011645 0.062716 -1.627401
2008-06-26 07:11:41 51°14.451 2°54.88 21.3218 0.011645 0.062716 -1.662225
2008-06-26 07:11:47 51°14.464 2°54.855 21.3202 0.011645 0.062716 -1.627401
2008-06-26 07:11:52 51°14.475 2°54.835 21.3301 0.011748 0.063225 -1.627401
2008-06-26 07:11:56 51°14.484 2°54.819 21.3304 0.011645 0.062716 -1.627401
2008-06-26 07:12:01 51°14.496 2°54.799 21.3336 0.011645 0.062716 -1.627401
2008-06-26 07:12:06 51°14.507 2°54.78 21.3337 0.011645 0.062716 -1.627401
2008-06-26 07:12:12 51°14.52 2°54.756 21.3338 0.011645 0.062718 -1.627401
2008-06-26 07:12:16 51°14.529 2°54.74 21.3408 0.011645 0.062717 -1.627401
2008-06-26 07:12:21 51°14.54 2°54.72 21.3533 0.011645 0.062718 -1.627401
2008-06-26 07:12:26 51°14.55 2°54.699 21.335 0.011645 0.062719 -1.627401
2008-06-26 07:12:31 51°14.558 2°54.677 21.3206 0.011645 0.062719 -1.627401
2008-06-26 07:12:36 51°14.567 2°54.654 21.3175 0.011645 0.062721 -1.627401
2008-06-26 07:12:41 51°14.575 2°54.632 21.3254 0.011645 0.062721 -1.627401
2008-06-26 07:12:47 51°14.585 2°54.606 21.3271 0.011645 0.062721 -1.627401
2008-06-26 07:12:52 51°14.593 2°54.583 21.3249 0.011645 0.062722 -1.627401
2008-06-26 07:12:56 51°14.599 2°54.565 21.325 0.011645 0.062722 -1.627401
2008-06-26 07:13:01 51°14.607 2°54.543 21.3242 0.011748 0.063231 -1.627401
2008-06-26 07:13:07 51°14.616 2°54.515 21.3273 0.011748 0.063231 -1.627401
2008-06-26 07:13:12 51°14.624 2°54.492 21.3242 0.011645 0.062723 -1.627401
2008-06-26 07:13:16 51°14.63 2°54.474 21.3232 0.011645 0.062723 -1.627401
2008-06-26 07:13:21 51°14.637 2°54.45 21.326 0.011645 0.062724 -1.627401
2008-06-26 07:13:27 51°14.647 2°54.423 21.3233 0.011645 0.062724 -1.627401
2008-06-26 07:13:32 51°14.655 2°54.4 21.3233 0.011645 0.062724 -1.627401
2008-06-26 07:13:36 51°14.661 2°54.381 21.3255 0.011645 0.062725 -1.627401
2008-06-26 07:13:42 51°14.67 2°54.354 21.3319 0.011645 0.062725 -1.627401
2008-06-26 07:13:47 51°14.679 2°54.331 21.2415 0.011645 0.062726 -1.627401
2008-06-26 07:13:52 51°14.687 2°54.308 21.2642 0.011645 0.062726 -1.627401
2008-06-26 07:13:56 51°14.693 2°54.29 21.2763 0.011645 0.062727 -1.627401
2008-06-26 07:14:01 51°14.701 2°54.267 21.2864 0.011645 0.062727 -1.627401
2008-06-26 07:14:07 51°14.71 2°54.24 21.2983 0.011645 0.062728 -1.627401
2008-06-26 07:14:12 51°14.718 2°54.217 21.3027 0.011645 0.062728 -1.627401
2008-06-26 07:14:16 51°14.725 2°54.199 21.3081 0.011645 0.062729 -1.627401
2008-06-26 07:14:21 51°14.733 2°54.176 21.3014 0.011645 0.062729 -1.627401
2008-06-26 07:14:26 51°14.741 2°54.154 21.3149 0.011645 0.06273 -1.627401
2008-06-26 07:14:32 51°14.751 2°54.127 21.3173 0.011645 0.06273 -1.627401
2008-06-26 07:14:36 51°14.758 2°54.109 21.3216 0.011645 0.06273 -1.627401
2008-06-26 07:14:41 51°14.766 2°54.086 21.3211 0.011645 0.06273 -1.627401
2008-06-26 07:14:46 51°14.774 2°54.064 21.3229 0.011645 0.062731 -1.627401
2008-06-26 07:14:52 51°14.784 2°54.037 21.3104 0.011645 0.062732 -1.662225
2008-06-26 07:14:57 51°14.792 2°54.014 21.3115 0.011645 0.062733 -1.627401
2008-06-26 07:15:01 51°14.799 2°53.996 21.3185 0.011645 0.062733 -1.627401
2008-06-26 07:15:07 51°14.808 2°53.969 21.1977 0.011645 0.062733 -1.627401
2008-06-26 07:15:12 51°14.817 2°53.947 21.2191 0.011645 0.062733 -1.627401
2008-06-26 07:15:16 51°14.823 2°53.928 21.2413 0.011645 0.062734 -1.627401
2008-06-26 07:15:21 51°14.83 2°53.905 21.2579 0.011645 0.062735 -1.627401
2008-06-26 07:15:27 51°14.839 2°53.877 21.2767 0.011645 0.062736 -1.627401
2008-06-26 07:15:32 51°14.847 2°53.854 21.1678 0.011645 0.062736 -1.627401
2008-06-26 07:15:36 51°14.853 2°53.836 21.2024 0.011645 0.062737 -1.627401
2008-06-26 07:15:42 51°14.862 2°53.808 21.232 0.011645 0.062737 -1.627401
2008-06-26 07:15:47 51°14.869 2°53.784 21.2523 0.011645 0.062738 -1.627401
2008-06-26 07:15:52 51°14.877 2°53.761 21.2625 0.011645 0.062739 -1.627401
2008-06-26 07:15:56 51°14.883 2°53.742 21.2747 0.011645 0.062739 -1.627401
2008-06-26 07:16:01 51°14.89 2°53.719 21.2789 0.011645 0.062739 -1.627401
2008-06-26 07:16:07 51°14.899 2°53.691 21.2839 0.011645 0.06274 -1.627401
2008-06-26 07:16:12 51°14.907 2°53.668 21.2956 0.011645 0.06274 -1.627401
2008-06-26 07:16:16 51°14.913 2°53.649 21.3006 0.011645 0.06274 -1.627401
2008-06-26 07:16:21 51°14.921 2°53.626 21.302 0.011645 0.062741 -1.627401
2008-06-26 07:16:26 51°14.928 2°53.603 21.3111 0.011645 0.062741 -1.627401
2008-06-26 07:16:32 51°14.937 2°53.574 21.2952 0.011645 0.062741 -1.627401
2008-06-26 07:16:36 51°14.943 2°53.556 21.2901 0.011645 0.062741 -1.627401
2008-06-26 07:16:41 51°14.951 2°53.533 21.2986 0.011645 0.062742 -1.627401
2008-06-26 07:16:46 51°14.958 2°53.51 21.2971 0.011645 0.062743 -1.627401
2008-06-26 07:16:52 51°14.967 2°53.481 21.2923 0.011645 0.062744 -1.627401
2008-06-26 07:16:56 51°14.974 2°53.463 21.3097 0.011645 0.062744 -1.627401
2008-06-26 07:17:01 51°14.982 2°53.441 21.3053 0.011645 0.062744 -1.627401
2008-06-26 07:17:07 51°14.992 2°53.413 21.3179 0.011645 0.062744 -1.627401
2008-06-26 07:17:12 51°15 2°53.391 21.3083 0.011645 0.062744 -1.627401
2008-06-26 07:17:17 51°15.008 2°53.368 21.316 0.011645 0.062745 -1.627401
2008-06-26 07:17:21 51°15.015 2°53.35 21.3071 0.011645 0.062745 -1.627401
2008-06-26 07:17:27 51°15.025 2°53.322 21.3083 0.011645 0.062746 -1.627401
2008-06-26 07:17:32 51°15.033 2°53.3 21.3137 0.011645 0.062746 -1.627401
2008-06-26 07:17:36 51°15.039 2°53.281 21.3198 0.011645 0.062747 -1.627401
2008-06-26 07:17:42 51°15.049 2°53.253 21.3023 0.011645 0.062748 -1.627401
2008-06-26 07:17:47 51°15.057 2°53.23 21.3114 0.011645 0.062749 -1.627401
2008-06-26 07:17:52 51°15.065 2°53.207 21.3058 0.011645 0.062749 -1.627401
2008-06-26 07:17:56 51°15.071 2°53.188 21.3114 0.011645 0.06275 -1.627401
2008-06-26 07:18:02 51°15.08 2°53.16 21.3112 0.011645 0.062751 -1.627401
2008-06-26 07:18:07 51°15.088 2°53.136 21.3118 0.011645 0.062751 -1.627401
2008-06-26 07:18:12 51°15.095 2°53.113 21.3103 0.011645 0.062752 -1.627401
2008-06-26 07:18:16 51°15.101 2°53.094 21.315 0.011645 0.062752 -1.627401
2008-06-26 07:18:21 51°15.109 2°53.07 21.3151 0.011645 0.062752 -1.627401
2008-06-26 07:18:27 51°15.118 2°53.042 21.316 0.011645 0.062753 -1.627401
2008-06-26 07:18:32 51°15.125 2°53.019 21.3085 0.011645 0.062754 -1.627401
2008-06-26 07:18:36 51°15.131 2°53 21.318 0.011645 0.062754 -1.627401
2008-06-26 07:18:41 51°15.138 2°52.976 21.3221 0.011645 0.062755 -1.627401
2008-06-26 07:18:47 51°15.147 2°52.947 21.3165 0.011645 0.062756 -1.627401
2008-06-26 07:18:52 51°15.154 2°52.924 21.1799 0.011645 0.062756 -1.627401
2008-06-26 07:18:56 51°15.159 2°52.905 21.2155 0.011645 0.062756 -1.627401
2008-06-26 07:19:01 51°15.166 2°52.881 21.2264 0.011645 0.062756 -1.627401
2008-06-26 07:19:06 51°15.173 2°52.857 21.2552 0.011645 0.062759 -1.662225
2008-06-26 07:19:12 51°15.182 2°52.829 21.2694 0.011645 0.062758 -1.627401
2008-06-26 07:19:16 51°15.187 2°52.81 21.2889 0.011645 0.062759 -1.627401
2008-06-26 07:19:21 51°15.194 2°52.786 21.2959 0.011645 0.062759 -1.627401
2008-06-26 07:19:26 51°15.201 2°52.762 21.3159 0.011645 0.06276 -1.627401
2008-06-26 07:19:31 51°15.208 2°52.739 21.1931 0.011645 0.06276 -1.627401
2008-06-26 07:19:36 51°15.215 2°52.715 21.2212 0.011645 0.062762 -1.627401
2008-06-26 07:19:41 51°15.222 2°52.691 21.2395 0.011645 0.062762 -1.627401
2008-06-26 07:19:46 51°15.229 2°52.668 21.2556 0.011645 0.062762 -1.627401
2008-06-26 07:19:51 51°15.237 2°52.644 21.2776 0.011645 0.062763 -1.662225
2008-06-26 07:19:56 51°15.244 2°52.62 21.2844 0.011645 0.062763 -1.627401
2008-06-26 07:20:01 51°15.251 2°52.597 21.29 0.011645 0.062763 -1.627401
2008-06-26 07:20:06 51°15.258 2°52.573 21.2934 0.011645 0.062763 -1.627401
2008-06-26 07:20:11 51°15.265 2°52.549 21.3086 0.011645 0.062764 -1.627401
2008-06-26 07:20:16 51°15.272 2°52.526 21.3212 0.011645 0.062765 -1.627401
2008-06-26 07:20:21 51°15.279 2°52.502 21.3185 0.011645 0.062765 -1.627401
2008-06-26 07:20:26 51°15.284 2°52.477 21.31 0.011645 0.062767 -1.627401
2008-06-26 07:20:31 51°15.29 2°52.453 21.3199 0.011645 0.062767 -1.627401
2008-06-26 07:20:36 51°15.294 2°52.428 21.3139 0.011645 0.062767 -1.627401
2008-06-26 07:20:41 51°15.299 2°52.403 21.3155 0.011645 0.062768 -1.627401
2008-06-26 07:20:46 51°15.303 2°52.378 21.3134 0.011645 0.062769 -1.627401
2008-06-26 07:20:51 51°15.308 2°52.353 21.3196 0.011645 0.06277 -1.627401
2008-06-26 07:20:56 51°15.312 2°52.327 21.3227 0.011645 0.06277 -1.627401
2008-06-26 07:21:01 51°15.315 2°52.302 21.3147 0.011645 0.06277 -1.627401
2008-06-26 07:21:07 51°15.32 2°52.272 21.3179 0.011645 0.06277 -1.627401
2008-06-26 07:21:11 51°15.324 2°52.251 21.3242 0.011645 0.062771 -1.627401
2008-06-26 07:21:16 51°15.327 2°52.226 21.3178 0.011645 0.062772 -1.627401
2008-06-26 07:21:21 51°15.331 2°52.2 21.3194 0.011645 0.062772 -1.627401
2008-06-26 07:21:26 51°15.335 2°52.174 21.3241 0.011645 0.062773 -1.627401
2008-06-26 07:21:31 51°15.339 2°52.149 21.3192 0.011645 0.062774 -1.627401
2008-06-26 07:21:36 51°15.343 2°52.124 21.3126 0.011645 0.062774 -1.627401
2008-06-26 07:21:41 51°15.347 2°52.098 21.3239 0.011645 0.062774 -1.627401
2008-06-26 07:21:46 51°15.351 2°52.073 21.1988 0.011645 0.062774 -1.627401
2008-06-26 07:21:51 51°15.355 2°52.048 21.2346 0.011645 0.062774 -1.627401
2008-06-26 07:21:56 51°15.36 2°52.023 21.2463 0.011645 0.062774 -1.627401
2008-06-26 07:22:01 51°15.364 2°51.998 21.2682 0.011645 0.062775 -1.627401
2008-06-26 07:22:06 51°15.369 2°51.973 21.2804 0.011645 0.062775 -1.627401
2008-06-26 07:22:11 51°15.374 2°51.948 21.2911 0.011645 0.062776 -1.627401
2008-06-26 07:22:16 51°15.378 2°51.924 21.2971 0.011645 0.062777 -1.627401
2008-06-26 07:22:21 51°15.383 2°51.899 21.3058 0.011645 0.062777 -1.627401
2008-06-26 07:22:26 51°15.388 2°51.874 21.3132 0.011645 0.062777 -1.627401
2008-06-26 07:22:31 51°15.392 2°51.849 21.3112 0.011645 0.062777 -1.627401
2008-06-26 07:22:36 51°15.397 2°51.824 21.3155 0.011645 0.062778 -1.627401
2008-06-26 07:22:41 51°15.401 2°51.799 21.3186 0.011645 0.062779 -1.627401
2008-06-26 07:22:47 51°15.406 2°51.769 21.3284 0.011645 0.062779 -1.627401
2008-06-26 07:22:51 51°15.41 2°51.749 21.3371 0.011645 0.062779 -1.627401
2008-06-26 07:22:56 51°15.412 2°51.723 21.3322 0.011645 0.062781 -1.627401
2008-06-26 07:23:01 51°15.415 2°51.698 21.3289 0.011645 0.062781 -1.627401
2008-06-26 07:23:06 51°15.417 2°51.672 21.3297 0.011645 0.062782 -1.627401
2008-06-26 07:23:11 51°15.419 2°51.647 21.3289 0.011645 0.062782 -1.627401
2008-06-26 07:23:16 51°15.421 2°51.621 21.3365 0.011645 0.062783 -1.627401
2008-06-26 07:23:21 51°15.422 2°51.595 21.2592 0.011645 0.062784 -1.627401
2008-06-26 07:23:26 51°15.423 2°51.569 21.2648 0.011645 0.062785 -1.627401
2008-06-26 07:23:31 51°15.425 2°51.543 21.2857 0.011645 0.062785 -1.627401
2008-06-26 07:23:36 51°15.426 2°51.518 21.2958 0.011645 0.062785 -1.627401
2008-06-26 07:23:41 51°15.427 2°51.492 21.3057 0.011645 0.062785 -1.627401
2008-06-26 07:23:46 51°15.428 2°51.466 21.3008 0.011645 0.062785 -1.627401
2008-06-26 07:23:51 51°15.429 2°51.44 21.3166 0.011645 0.062785 -1.627401
2008-06-26 07:23:56 51°15.431 2°51.414 21.3291 0.011645 0.062785 -1.627401
2008-06-26 07:24:01 51°15.432 2°51.388 21.3167 0.011645 0.062786 -1.627401
2008-06-26 07:24:06 51°15.433 2°51.363 21.3313 0.011645 0.062786 -1.627401
2008-06-26 07:24:11 51°15.435 2°51.337 21.3251 0.011645 0.062786 -1.627401
2008-06-26 07:24:16 51°15.436 2°51.311 21.3296 0.011645 0.062786 -1.627401
2008-06-26 07:24:21 51°15.438 2°51.285 21.245 0.011645 0.062787 -1.627401
2008-06-26 07:24:26 51°15.439 2°51.259 21.2673 0.011645 0.062787 -1.627401
2008-06-26 07:24:31 51°15.441 2°51.233 21.2768 0.011645 0.062787 -1.627401
2008-06-26 07:24:36 51°15.442 2°51.207 21.2925 0.011645 0.062788 -1.627401
2008-06-26 07:24:41 51°15.443 2°51.182 21.3069 0.011645 0.062788 -1.627401
2008-06-26 07:24:46 51°15.443 2°51.156 21.306 0.011645 0.062789 -1.627401
2008-06-26 07:24:51 51°15.443 2°51.13 21.3159 0.011645 0.06279 -1.627401
2008-06-26 07:24:56 51°15.442 2°51.105 21.3197 0.011645 0.06279 -1.627401
2008-06-26 07:25:01 51°15.441 2°51.079 21.3214 0.011645 0.06279 -1.627401
2008-06-26 07:25:06 51°15.439 2°51.053 21.328 0.011645 0.06279 -1.627401
2008-06-26 07:25:11 51°15.438 2°51.028 21.3218 0.011645 0.062791 -1.627401
2008-06-26 07:25:16 51°15.436 2°51.002 21.3351 0.011645 0.062791 -1.627401
2008-06-26 07:25:21 51°15.434 2°50.977 21.157 0.011645 0.062791 -1.627401
2008-06-26 07:25:26 51°15.433 2°50.951 21.1884 0.011645 0.062791 -1.627401
2008-06-26 07:25:31 51°15.431 2°50.925 21.231 0.011645 0.062792 -1.627401
2008-06-26 07:25:36 51°15.43 2°50.9 21.2531 0.011645 0.062792 -1.627401
2008-06-26 07:25:41 51°15.429 2°50.874 21.2618 0.011645 0.062793 -1.627401
2008-06-26 07:25:47 51°15.428 2°50.843 21.2836 0.011645 0.062792 -1.627401
2008-06-26 07:25:51 51°15.427 2°50.822 21.3039 0.011645 0.062793 -1.627401
2008-06-26 07:25:56 51°15.427 2°50.796 21.3101 0.011645 0.062793 -1.627401
2008-06-26 07:26:01 51°15.426 2°50.771 21.3153 0.011645 0.062793 -1.662225
2008-06-26 07:26:06 51°15.426 2°50.745 21.3231 0.011645 0.062793 -1.662225
2008-06-26 07:26:11 51°15.425 2°50.719 21.3251 0.011645 0.062794 -1.627401
2008-06-26 07:26:16 51°15.424 2°50.693 21.329 0.011645 0.062794 -1.627401
2008-06-26 07:26:21 51°15.424 2°50.667 21.3282 0.011645 0.062794 -1.627401
2008-06-26 07:26:26 51°15.423 2°50.642 21.3305 0.011645 0.062794 -1.627401
2008-06-26 07:26:31 51°15.423 2°50.616 21.3345 0.011645 0.062794 -1.627401
2008-06-26 07:26:36 51°15.423 2°50.59 21.3447 0.011645 0.062796 -1.627401
2008-06-26 07:26:41 51°15.423 2°50.564 21.3431 0.011645 0.062796 -1.662225
2008-06-26 07:26:46 51°15.423 2°50.538 21.3482 0.011645 0.062796 -1.627401
2008-06-26 07:26:51 51°15.423 2°50.512 21.3387 0.011645 0.062796 -1.627401
2008-06-26 07:26:56 51°15.422 2°50.487 21.3471 0.011645 0.062796 -1.627401
2008-06-26 07:27:01 51°15.422 2°50.461 21.3453 0.011645 0.062797 -1.627401
2008-06-26 07:27:06 51°15.422 2°50.435 21.3519 0.011645 0.062797 -1.627401
2008-06-26 07:27:11 51°15.422 2°50.409 21.3525 0.011645 0.062797 -1.627401
2008-06-26 07:27:16 51°15.422 2°50.383 21.3536 0.011645 0.062798 -1.627401
2008-06-26 07:27:21 51°15.421 2°50.357 21.34 0.011645 0.062799 -1.627401
2008-06-26 07:27:26 51°15.421 2°50.332 21.3501 0.011645 0.062799 -1.627401
2008-06-26 07:27:31 51°15.421 2°50.306 21.346 0.011645 0.062799 -1.627401
2008-06-26 07:27:36 51°15.421 2°50.28 21.3488 0.011645 0.062799 -1.627401
2008-06-26 07:27:41 51°15.421 2°50.254 21.3506 0.011645 0.062799 -1.627401
2008-06-26 07:27:46 51°15.421 2°50.229 21.3559 0.011645 0.0628 -1.627401
2008-06-26 07:27:51 51°15.42 2°50.202 21.3478 0.011645 0.062801 -1.627401
2008-06-26 07:27:56 51°15.421 2°50.177 21.2339 0.011645 0.062801 -1.627401
2008-06-26 07:28:01 51°15.42 2°50.151 21.2563 0.011645 0.062801 -1.627401
2008-06-26 07:28:06 51°15.42 2°50.125 21.2805 0.011645 0.062802 -1.627401
2008-06-26 07:28:11 51°15.42 2°50.099 21.2935 0.011645 0.062803 -1.627401
2008-06-26 07:28:16 51°15.42 2°50.073 21.3026 0.011645 0.062803 -1.627401
2008-06-26 07:28:21 51°15.42 2°50.047 21.3149 0.011645 0.062803 -1.627401
2008-06-26 07:28:26 51°15.42 2°50.021 21.3271 0.011645 0.062803 -1.627401
2008-06-26 07:28:31 51°15.42 2°49.996 21.3246 0.011645 0.062805 -1.627401
2008-06-26 07:28:36 51°15.42 2°49.97 21.3154 0.011645 0.062805 -1.627401
2008-06-26 07:28:41 51°15.42 2°49.944 21.328 0.011645 0.062805 -1.627401
2008-06-26 07:28:46 51°15.42 2°49.919 21.3194 0.011645 0.062806 -1.627401
2008-06-26 07:28:51 51°15.42 2°49.893 21.3347 0.011645 0.062807 -1.627401
2008-06-26 07:28:56 51°15.421 2°49.868 21.2668 0.011645 0.062806 -1.627401
2008-06-26 07:29:01 51°15.422 2°49.842 21.2777 0.011645 0.062807 -1.627401
2008-06-26 07:29:06 51°15.423 2°49.817 21.3076 0.011645 0.062807 -1.627401
2008-06-26 07:29:11 51°15.423 2°49.791 21.3147 0.011645 0.062807 -1.627401
2008-06-26 07:29:16 51°15.425 2°49.766 21.339 0.011645 0.062808 -1.627401
2008-06-26 07:29:21 51°15.426 2°49.74 21.3457 0.011645 0.062808 -1.627401
2008-06-26 07:29:26 51°15.426 2°49.714 21.3469 0.011645 0.062809 -1.627401
2008-06-26 07:29:31 51°15.427 2°49.689 21.3434 0.011645 0.06281 -1.627401
2008-06-26 07:29:36 51°15.427 2°49.663 21.3573 0.011645 0.06281 -1.627401
2008-06-26 07:29:41 51°15.427 2°49.637 21.3473 0.011645 0.06281 -1.627401
2008-06-26 07:29:46 51°15.427 2°49.612 21.3544 0.011645 0.062811 -1.627401
2008-06-26 07:29:51 51°15.427 2°49.586 21.3542 0.011645 0.062812 -1.627401
2008-06-26 07:29:56 51°15.427 2°49.56 21.3587 0.011645 0.062813 -1.662225
2008-06-26 07:30:01 51°15.427 2°49.535 21.3543 0.011645 0.062813 -1.662225
2008-06-26 07:30:06 51°15.427 2°49.509 21.3594 0.011645 0.062813 -1.627401
2008-06-26 07:30:11 51°15.427 2°49.483 21.3607 0.011645 0.062814 -1.627401
2008-06-26 07:30:16 51°15.427 2°49.458 21.2271 0.011645 0.062814 -1.627401
2008-06-26 07:30:21 51°15.426 2°49.432 21.263 0.011645 0.062815 -1.627401
2008-06-26 07:30:26 51°15.426 2°49.406 21.286 0.011645 0.062815 -1.627401
2008-06-26 07:30:31 51°15.426 2°49.38 21.2941 0.011645 0.062816 -1.627401
2008-06-26 07:30:36 51°15.426 2°49.355 21.3253 0.011645 0.062816 -1.627401
2008-06-26 07:30:41 51°15.425 2°49.329 21.2849 0.011645 0.062817 -1.627401
2008-06-26 07:30:46 51°15.425 2°49.303 21.2935 0.011645 0.062816 -1.627401
2008-06-26 07:30:51 51°15.425 2°49.277 21.3036 0.011645 0.062818 -1.627401
2008-06-26 07:30:56 51°15.425 2°49.251 21.3331 0.011645 0.062818 -1.627401
2008-06-26 07:31:01 51°15.424 2°49.225 21.3293 0.011645 0.062819 -1.627401
2008-06-26 07:31:06 51°15.424 2°49.2 21.3448 0.011645 0.062819 -1.627401
2008-06-26 07:31:11 51°15.424 2°49.174 21.3438 0.011645 0.062818 -1.627401
2008-06-26 07:31:16 51°15.424 2°49.148 21.3572 0.011645 0.06282 -1.627401
2008-06-26 07:31:21 51°15.424 2°49.122 21.362 0.011645 0.06282 -1.627401
2008-06-26 07:31:26 51°15.424 2°49.096 21.3561 0.011645 0.062821 -1.627401
2008-06-26 07:31:31 51°15.424 2°49.07 21.3617 0.011645 0.062821 -1.627401
2008-06-26 07:31:36 51°15.424 2°49.044 21.3541 0.011645 0.062821 -1.627401
2008-06-26 07:31:41 51°15.424 2°49.018 21.3087 0.011645 0.062822 -1.627401
2008-06-26 07:31:46 51°15.425 2°48.992 21.2512 0.011645 0.062822 -1.627401
2008-06-26 07:31:51 51°15.425 2°48.966 21.2902 0.011645 0.062822 -1.627401
2008-06-26 07:31:56 51°15.426 2°48.94 21.2047 0.011645 0.062823 -1.627401
2008-06-26 07:32:01 51°15.427 2°48.914 21.2428 0.011645 0.062823 -1.627401
2008-06-26 07:32:06 51°15.428 2°48.888 21.278 0.011645 0.062823 -1.627401
2008-06-26 07:32:11 51°15.429 2°48.862 21.288 0.011645 0.062824 -1.627401
2008-06-26 07:32:16 51°15.429 2°48.837 21.3094 0.011645 0.062825 -1.627401
2008-06-26 07:32:21 51°15.429 2°48.811 21.3097 0.011645 0.062825 -1.627401
2008-06-26 07:32:26 51°15.43 2°48.785 21.3348 0.011645 0.062826 -1.627401
2008-06-26 07:32:31 51°15.43 2°48.759 21.333 0.011645 0.062827 -1.627401
2008-06-26 07:32:36 51°15.43 2°48.733 21.3467 0.011645 0.062827 -1.627401
2008-06-26 07:32:41 51°15.43 2°48.708 21.3434 0.011645 0.062828 -1.627401
2008-06-26 07:32:46 51°15.429 2°48.682 21.3312 0.011645 0.062829 -1.627401
2008-06-26 07:32:51 51°15.429 2°48.656 21.3381 0.011645 0.062829 -1.627401
2008-06-26 07:32:56 51°15.429 2°48.631 21.3412 0.011645 0.06283 -1.627401
2008-06-26 07:33:01 51°15.429 2°48.605 21.3565 0.011645 0.06283 -1.627401
2008-06-26 07:33:06 51°15.429 2°48.579 21.1836 0.011645 0.06283 -1.627401
2008-06-26 07:33:11 51°15.429 2°48.554 21.2303 0.011645 0.062832 -1.627401
2008-06-26 07:33:16 51°15.428 2°48.528 21.2531 0.011645 0.062832 -1.662225
2008-06-26 07:33:21 51°15.428 2°48.503 21.2739 0.011645 0.062833 -1.662225
2008-06-26 07:33:26 51°15.428 2°48.477 21.2857 0.011645 0.062833 -1.627401
2008-06-26 07:33:31 51°15.428 2°48.451 21.3227 0.011645 0.062833 -1.627401
2008-06-26 07:33:36 51°15.429 2°48.426 21.3228 0.011645 0.062833 -1.627401
2008-06-26 07:33:41 51°15.429 2°48.4 21.3353 0.011645 0.062833 -1.662225
2008-06-26 07:33:46 51°15.43 2°48.374 21.2183 0.011645 0.062834 -1.627401
2008-06-26 07:33:51 51°15.43 2°48.349 21.2505 0.011645 0.062836 -1.627401
2008-06-26 07:33:56 51°15.431 2°48.323 21.2872 0.011645 0.062836 -1.627401
2008-06-26 07:34:01 51°15.432 2°48.297 21.3087 0.011645 0.062837 -1.627401
2008-06-26 07:34:06 51°15.432 2°48.271 21.3288 0.011645 0.062837 -1.627401
2008-06-26 07:34:11 51°15.433 2°48.246 21.3398 0.011645 0.062837 -1.627401
2008-06-26 07:34:16 51°15.433 2°48.22 21.3444 0.011645 0.062838 -1.627401
2008-06-26 07:34:21 51°15.433 2°48.194 21.3527 0.011645 0.062839 -1.627401
2008-06-26 07:34:26 51°15.433 2°48.168 21.356 0.011645 0.06284 -1.627401
2008-06-26 07:34:31 51°15.432 2°48.143 21.3544 0.011645 0.06284 -1.627401
2008-06-26 07:34:36 51°15.431 2°48.117 21.3698 0.011645 0.06284 -1.627401
2008-06-26 07:34:41 51°15.43 2°48.092 21.369 0.011645 0.062841 -1.627401
2008-06-26 07:34:46 51°15.429 2°48.066 21.3646 0.011645 0.062842 -1.627401
2008-06-26 07:34:51 51°15.429 2°48.04 21.3745 0.011645 0.062843 -1.627401
2008-06-26 07:34:56 51°15.428 2°48.015 21.3676 0.011645 0.062844 -1.627401
2008-06-26 07:35:01 51°15.427 2°47.989 21.3771 0.011645 0.062844 -1.627401
2008-06-26 07:35:06 51°15.425 2°47.963 21.3715 0.011645 0.062844 -1.627401
2008-06-26 07:35:11 51°15.424 2°47.937 21.2654 0.011645 0.062845 -1.627401
2008-06-26 07:35:16 51°15.423 2°47.912 21.2919 0.011645 0.062845 -1.627401
2008-06-26 07:35:21 51°15.422 2°47.886 21.3123 0.011645 0.062847 -1.627401
2008-06-26 07:35:26 51°15.422 2°47.86 21.3217 0.011645 0.062848 -1.627401
2008-06-26 07:35:31 51°15.421 2°47.834 21.3493 0.011645 0.062848 -1.627401
2008-06-26 07:35:36 51°15.421 2°47.808 21.3494 0.011645 0.062848 -1.627401
2008-06-26 07:35:41 51°15.42 2°47.782 21.2353 0.011645 0.062848 -1.627401
2008-06-26 07:35:46 51°15.421 2°47.756 21.2787 0.011645 0.062849 -1.627401
2008-06-26 07:35:51 51°15.421 2°47.73 21.2923 0.011645 0.06285 -1.627401
2008-06-26 07:35:56 51°15.421 2°47.704 21.3258 0.011645 0.062851 -1.627401
2008-06-26 07:36:01 51°15.422 2°47.678 21.3203 0.011645 0.062851 -1.627401
2008-06-26 07:36:06 51°15.423 2°47.652 21.3383 0.011645 0.062851 -1.627401
2008-06-26 07:36:11 51°15.423 2°47.626 21.3457 0.011645 0.062852 -1.627401
2008-06-26 07:36:16 51°15.424 2°47.6 21.3576 0.011645 0.062853 -1.627401
2008-06-26 07:36:21 51°15.425 2°47.574 21.3312 0.011645 0.062854 -1.662225
2008-06-26 07:36:26 51°15.426 2°47.548 21.35 0.011645 0.062855 -1.627401
2008-06-26 07:36:31 51°15.426 2°47.522 21.3556 0.011645 0.062856 -1.627401
2008-06-26 07:36:36 51°15.427 2°47.496 21.3541 0.011645 0.062856 -1.627401
2008-06-26 07:36:41 51°15.427 2°47.469 21.3601 0.011645 0.062857 -1.627401
2008-06-26 07:36:46 51°15.428 2°47.443 21.364 0.011645 0.062857 -1.627401
2008-06-26 07:36:51 51°15.428 2°47.417 21.3842 0.011645 0.062859 -1.627401
2008-06-26 07:36:56 51°15.428 2°47.391 21.3722 0.011645 0.062859 -1.627401
2008-06-26 07:37:01 51°15.428 2°47.365 21.3813 0.011645 0.062859 -1.627401
2008-06-26 07:37:06 51°15.428 2°47.339 21.3729 0.011645 0.06286 -1.627401
2008-06-26 07:37:11 51°15.427 2°47.313 21.3959 0.011645 0.062862 -1.627401
2008-06-26 07:37:16 51°15.426 2°47.287 21.3766 0.011645 0.062863 -1.627401
2008-06-26 07:37:21 51°15.425 2°47.261 21.3905 0.011645 0.062863 -1.627401
2008-06-26 07:37:26 51°15.423 2°47.235 21.3841 0.011645 0.062864 -1.627401
2008-06-26 07:37:31 51°15.422 2°47.209 21.3838 0.011645 0.062865 -1.627401
2008-06-26 07:37:36 51°15.421 2°47.183 21.3835 0.011645 0.062865 -1.627401
2008-06-26 07:37:41 51°15.42 2°47.157 21.3045 0.011645 0.062866 -1.627401
2008-06-26 07:37:46 51°15.419 2°47.131 21.3279 0.011645 0.062867 -1.627401
2008-06-26 07:37:51 51°15.418 2°47.105 21.3525 0.011645 0.062867 -1.627401
2008-06-26 07:37:56 51°15.417 2°47.079 21.348 0.011645 0.062868 -1.627401
2008-06-26 07:38:01 51°15.416 2°47.053 21.3602 0.011645 0.062868 -1.627401
2008-06-26 07:38:06 51°15.415 2°47.027 21.3681 0.011645 0.062868 -1.627401
2008-06-26 07:38:11 51°15.414 2°47.001 21.3784 0.011645 0.06287 -1.627401
2008-06-26 07:38:16 51°15.413 2°46.975 21.2991 0.011645 0.06287 -1.627401
2008-06-26 07:38:21 51°15.411 2°46.949 21.3194 0.011645 0.062871 -1.627401
2008-06-26 07:38:26 51°15.411 2°46.923 21.3524 0.011645 0.062872 -1.627401
2008-06-26 07:38:31 51°15.409 2°46.897 21.3552 0.011645 0.062873 -1.627401
2008-06-26 07:38:36 51°15.408 2°46.87 21.3684 0.011645 0.062873 -1.627401
2008-06-26 07:38:41 51°15.407 2°46.844 21.3683 0.011645 0.062873 -1.627401
2008-06-26 07:38:46 51°15.406 2°46.818 21.3878 0.011645 0.062874 -1.627401
2008-06-26 07:38:51 51°15.406 2°46.792 21.3764 0.011645 0.062874 -1.627401
2008-06-26 07:38:56 51°15.405 2°46.766 21.3845 0.011645 0.062876 -1.627401
2008-06-26 07:39:01 51°15.404 2°46.74 21.3764 0.011645 0.062876 -1.627401
2008-06-26 07:39:06 51°15.403 2°46.714 21.3951 0.011645 0.062877 -1.627401
2008-06-26 07:39:11 51°15.403 2°46.688 21.3911 0.011645 0.062878 -1.627401
2008-06-26 07:39:16 51°15.402 2°46.662 21.3906 0.011645 0.062878 -1.627401
2008-06-26 07:39:21 51°15.403 2°46.636 21.3976 0.011645 0.062879 -1.627401
2008-06-26 07:39:26 51°15.402 2°46.61 21.3683 0.011645 0.06288 -1.627401
2008-06-26 07:39:31 51°15.402 2°46.584 21.3802 0.011645 0.062881 -1.627401
2008-06-26 07:39:36 51°15.402 2°46.557 21.3728 0.011645 0.062881 -1.627401
2008-06-26 07:39:41 51°15.402 2°46.532 21.392 0.011645 0.062882 -1.627401
2008-06-26 07:39:46 51°15.402 2°46.506 21.3821 0.011645 0.062882 -1.627401
2008-06-26 07:39:51 51°15.402 2°46.479 21.3924 0.011645 0.062884 -1.627401
2008-06-26 07:39:56 51°15.402 2°46.453 21.3902 0.011645 0.062884 -1.627401
2008-06-26 07:40:01 51°15.402 2°46.427 21.3965 0.011645 0.062885 -1.627401
2008-06-26 07:40:06 51°15.402 2°46.401 21.3838 0.011645 0.062885 -1.627401
2008-06-26 07:40:11 51°15.402 2°46.375 21.3868 0.011645 0.062886 -1.627401
2008-06-26 07:40:16 51°15.401 2°46.349 21.3952 0.011645 0.062887 -1.627401
2008-06-26 07:40:21 51°15.402 2°46.323 21.4094 0.011645 0.062888 -1.627401
2008-06-26 07:40:26 51°15.401 2°46.297 21.397 0.011645 0.062889 -1.662225
2008-06-26 07:40:31 51°15.4 2°46.271 21.3907 0.011645 0.062889 -1.662225
2008-06-26 07:40:36 51°15.4 2°46.245 21.3834 0.011645 0.062889 -1.627401
2008-06-26 07:40:41 51°15.399 2°46.219 21.3937 0.011645 0.062891 -1.627401
2008-06-26 07:40:46 51°15.399 2°46.193 21.3916 0.011645 0.062893 -1.627401
2008-06-26 07:40:51 51°15.398 2°46.167 21.3945 0.011645 0.062893 -1.627401
2008-06-26 07:40:56 51°15.397 2°46.141 21.2704 0.011645 0.062894 -1.627401
2008-06-26 07:41:01 51°15.396 2°46.115 21.298 0.011645 0.062895 -1.627401
2008-06-26 07:41:06 51°15.395 2°46.089 21.305 0.011645 0.062895 -1.627401
2008-06-26 07:41:11 51°15.394 2°46.064 21.3378 0.011645 0.062896 -1.627401
2008-06-26 07:41:16 51°15.393 2°46.038 21.3518 0.011645 0.062897 -1.627401
2008-06-26 07:41:21 51°15.392 2°46.012 21.3562 0.011645 0.062897 -1.627401
2008-06-26 07:41:26 51°15.391 2°45.986 21.2648 0.011645 0.062898 -1.627401
2008-06-26 07:41:31 51°15.39 2°45.96 21.287 0.011645 0.0629 -1.627401
2008-06-26 07:41:36 51°15.389 2°45.935 21.3221 0.011645 0.0629 -1.627401
2008-06-26 07:41:41 51°15.388 2°45.909 21.3357 0.011645 0.0629 -1.627401
2008-06-26 07:41:46 51°15.387 2°45.883 21.3594 0.011645 0.062901 -1.627401
2008-06-26 07:41:51 51°15.386 2°45.857 21.3724 0.011645 0.062902 -1.627401
2008-06-26 07:41:56 51°15.386 2°45.831 21.3827 0.011645 0.062902 -1.627401
2008-06-26 07:42:01 51°15.385 2°45.806 21.3864 0.011645 0.062904 -1.627401
2008-06-26 07:42:06 51°15.384 2°45.78 21.3045 0.011645 0.062904 -1.627401
2008-06-26 07:42:11 51°15.383 2°45.754 21.3401 0.011645 0.062904 -1.627401
2008-06-26 07:42:16 51°15.382 2°45.728 21.3473 0.011645 0.062905 -1.627401
2008-06-26 07:42:21 51°15.381 2°45.703 21.3663 0.011645 0.062907 -1.627401
2008-06-26 07:42:26 51°15.38 2°45.677 21.3793 0.011645 0.062907 -1.627401
2008-06-26 07:42:31 51°15.379 2°45.651 21.3853 0.011645 0.062907 -1.627401
2008-06-26 07:42:36 51°15.379 2°45.626 21.4034 0.011645 0.062908 -1.627401
2008-06-26 07:42:41 51°15.378 2°45.6 21.3878 0.011645 0.062908 -1.627401
2008-06-26 07:42:46 51°15.377 2°45.574 21.4073 0.011645 0.06291 -1.627401
2008-06-26 07:42:51 51°15.376 2°45.549 21.3945 0.011645 0.062911 -1.627401
2008-06-26 07:42:56 51°15.376 2°45.523 21.4062 0.011645 0.062912 -1.627401
2008-06-26 07:43:01 51°15.375 2°45.498 21.4031 0.011645 0.062912 -1.627401
2008-06-26 07:43:06 51°15.374 2°45.472 21.405 0.011645 0.062912 -1.627401
2008-06-26 07:43:11 51°15.373 2°45.447 21.4097 0.011645 0.062914 -1.627401
2008-06-26 07:43:16 51°15.372 2°45.421 21.4136 0.011645 0.062914 -1.627401
2008-06-26 07:43:21 51°15.371 2°45.396 21.4037 0.011645 0.062916 -1.627401
2008-06-26 07:43:26 51°15.371 2°45.37 21.4182 0.011645 0.062917 -1.627401
2008-06-26 07:43:31 51°15.37 2°45.344 21.4064 0.011645 0.062918 -1.627401
2008-06-26 07:43:36 51°15.369 2°45.318 21.4243 0.011645 0.062918 -1.627401
2008-06-26 07:43:41 51°15.369 2°45.293 21.4136 0.011645 0.062919 -1.627401
2008-06-26 07:43:46 51°15.368 2°45.267 21.4169 0.011645 0.06292 -1.627401
2008-06-26 07:43:51 51°15.367 2°45.242 21.4099 0.011645 0.06292 -1.627401
2008-06-26 07:43:56 51°15.367 2°45.216 21.4142 0.011645 0.062921 -1.627401
2008-06-26 07:44:01 51°15.366 2°45.19 21.3174 0.011645 0.062923 -1.627401
2008-06-26 07:44:06 51°15.366 2°45.165 21.3391 0.011645 0.062923 -1.627401
2008-06-26 07:44:11 51°15.366 2°45.139 21.2605 0.011645 0.062923 -1.627401
2008-06-26 07:44:16 51°15.366 2°45.113 21.2787 0.011645 0.062924 -1.627401
2008-06-26 07:44:21 51°15.366 2°45.087 21.2622 0.011645 0.062925 -1.627401
2008-06-26 07:44:26 51°15.366 2°45.061 21.3127 0.011645 0.062926 -1.627401
2008-06-26 07:44:32 51°15.366 2°45.03 21.3312 0.011645 0.062927 -1.627401
2008-06-26 07:44:36 51°15.366 2°45.01 21.3506 0.011645 0.062927 -1.627401
2008-06-26 07:44:41 51°15.366 2°44.984 21.3593 0.011645 0.062928 -1.662225
2008-06-26 07:44:46 51°15.366 2°44.958 21.3127 0.011645 0.062928 -1.627401
2008-06-26 07:44:51 51°15.366 2°44.932 21.3451 0.011645 0.062929 -1.627401
2008-06-26 07:44:56 51°15.367 2°44.906 21.3752 0.011645 0.062931 -1.627401
2008-06-26 07:45:01 51°15.367 2°44.88 21.3893 0.011645 0.062931 -1.627401
2008-06-26 07:45:06 51°15.366 2°44.855 21.3481 0.011645 0.062931 -1.627401
2008-06-26 07:45:11 51°15.366 2°44.829 21.3766 0.011645 0.062932 -1.627401
2008-06-26 07:45:16 51°15.365 2°44.803 21.3761 0.011645 0.062933 -1.627401
2008-06-26 07:45:21 51°15.364 2°44.777 21.3818 0.011645 0.062934 -1.627401
2008-06-26 07:45:26 51°15.363 2°44.751 21.4117 0.011645 0.062935 -1.627401
2008-06-26 07:45:31 51°15.363 2°44.726 21.4187 0.011645 0.062936 -1.627401
2008-06-26 07:45:36 51°15.362 2°44.7 21.4161 0.011645 0.062936 -1.627401
2008-06-26 07:45:41 51°15.361 2°44.674 21.417 0.011645 0.062937 -1.627401
2008-06-26 07:45:46 51°15.361 2°44.648 21.4193 0.011645 0.062938 -1.627401
2008-06-26 07:45:51 51°15.36 2°44.623 21.4276 0.011645 0.062939 -1.627401
2008-06-26 07:45:56 51°15.359 2°44.597 21.3301 0.011645 0.06294 -1.627401
2008-06-26 07:46:01 51°15.359 2°44.571 21.3537 0.011645 0.06294 -1.627401
2008-06-26 07:46:06 51°15.358 2°44.545 21.3692 0.011645 0.062941 -1.627401
2008-06-26 07:46:11 51°15.357 2°44.519 21.3853 0.011645 0.062942 -1.627401
2008-06-26 07:46:16 51°15.357 2°44.493 21.3904 0.011645 0.062943 -1.627401
2008-06-26 07:46:21 51°15.356 2°44.468 21.3989 0.011645 0.062944 -1.627401
2008-06-26 07:46:26 51°15.355 2°44.442 21.4129 0.011645 0.062945 -1.627401
2008-06-26 07:46:32 51°15.354 2°44.411 21.4094 0.011645 0.062946 -1.627401
2008-06-26 07:46:36 51°15.353 2°44.391 21.4175 0.011645 0.062946 -1.627401
2008-06-26 07:46:41 51°15.353 2°44.365 21.4165 0.011645 0.062946 -1.627401
2008-06-26 07:46:46 51°15.352 2°44.339 21.4189 0.011645 0.062948 -1.627401
2008-06-26 07:46:51 51°15.352 2°44.313 21.4329 0.011645 0.062949 -1.662225
2008-06-26 07:46:56 51°15.351 2°44.288 21.4205 0.011645 0.06295 -1.627401
2008-06-26 07:47:01 51°15.35 2°44.262 21.4317 0.011645 0.06295 -1.627401
2008-06-26 07:47:06 51°15.349 2°44.237 21.4315 0.011645 0.06295 -1.627401
2008-06-26 07:47:11 51°15.349 2°44.211 21.4253 0.011645 0.062951 -1.627401
2008-06-26 07:47:16 51°15.348 2°44.186 21.2863 0.011645 0.062953 -1.627401
2008-06-26 07:47:21 51°15.348 2°44.16 21.3199 0.011645 0.062954 -1.627401
2008-06-26 07:47:26 51°15.347 2°44.135 21.3367 0.011645 0.062954 -1.627401
2008-06-26 07:47:31 51°15.346 2°44.109 21.372 0.011645 0.062955 -1.627401
2008-06-26 07:47:36 51°15.345 2°44.083 21.3858 0.011645 0.062955 -1.627401
2008-06-26 07:47:41 51°15.345 2°44.058 21.3969 0.011645 0.062956 -1.627401
2008-06-26 07:47:47 51°15.345 2°44.027 21.3403 0.011645 0.062957 -1.627401
2008-06-26 07:47:51 51°15.345 2°44.007 21.3658 0.011645 0.062958 -1.627401
2008-06-26 07:47:57 51°15.345 2°43.976 21.2954 0.011645 0.062959 -1.627401
2008-06-26 07:48:01 51°15.346 2°43.955 21.3308 0.011645 0.062959 -1.627401
2008-06-26 07:48:07 51°15.347 2°43.924 21.3517 0.011645 0.06296 -1.627401
2008-06-26 07:48:11 51°15.347 2°43.904 21.3757 0.011645 0.062961 -1.627401
2008-06-26 07:48:16 51°15.347 2°43.878 21.3015 0.011645 0.062962 -1.662225
2008-06-26 07:48:21 51°15.347 2°43.853 21.3367 0.011645 0.062963 -1.627401
2008-06-26 07:48:27 51°15.347 2°43.822 21.3599 0.011645 0.062964 -1.627401
2008-06-26 07:48:31 51°15.347 2°43.801 21.3747 0.011645 0.062965 -1.627401
2008-06-26 07:48:36 51°15.348 2°43.775 21.4112 0.011645 0.062965 -1.627401
2008-06-26 07:48:41 51°15.348 2°43.749 21.4063 0.011645 0.062966 -1.627401
2008-06-26 07:48:47 51°15.348 2°43.719 21.4398 0.011645 0.062966 -1.627401
2008-06-26 07:48:51 51°15.347 2°43.698 21.3048 0.011645 0.062968 -1.627401
2008-06-26 07:48:56 51°15.347 2°43.673 21.3443 0.011645 0.062969 -1.627401
2008-06-26 07:49:01 51°15.346 2°43.647 21.3126 0.011645 0.06297 -1.627401
2008-06-26 07:49:07 51°15.345 2°43.616 21.3361 0.011645 0.06297 -1.627401
2008-06-26 07:49:11 51°15.344 2°43.596 21.3482 0.011645 0.062971 -1.627401
2008-06-26 07:49:17 51°15.344 2°43.565 21.3857 0.011645 0.062971 -1.627401
2008-06-26 07:49:21 51°15.343 2°43.544 21.409 0.011645 0.062972 -1.627401
2008-06-26 07:49:27 51°15.342 2°43.513 21.4162 0.011645 0.062973 -1.627401
2008-06-26 07:49:31 51°15.341 2°43.492 21.42 0.011645 0.062973 -1.627401
2008-06-26 07:49:37 51°15.34 2°43.461 21.3345 0.011645 0.062974 -1.627401
2008-06-26 07:49:41 51°15.339 2°43.44 21.343 0.011645 0.062975 -1.627401
2008-06-26 07:49:47 51°15.338 2°43.409 21.3559 0.011645 0.062976 -1.627401
2008-06-26 07:49:51 51°15.337 2°43.388 21.3325 0.011645 0.062977 -1.627401
2008-06-26 07:49:57 51°15.337 2°43.357 21.3572 0.011645 0.062978 -1.627401
2008-06-26 07:50:01 51°15.336 2°43.336 21.3739 0.011645 0.062979 -1.627401
2008-06-26 07:50:07 51°15.336 2°43.305 21.3969 0.011645 0.062979 -1.627401
2008-06-26 07:50:11 51°15.335 2°43.284 21.3937 0.011645 0.062981 -1.627401
2008-06-26 07:50:16 51°15.335 2°43.258 21.4059 0.011645 0.062981 -1.627401
2008-06-26 07:50:21 51°15.334 2°43.232 21.4154 0.011645 0.062982 -1.627401
2008-06-26 07:50:27 51°15.335 2°43.201 21.4375 0.011645 0.062983 -1.627401
2008-06-26 07:50:31 51°15.334 2°43.18 21.4451 0.011645 0.062984 -1.627401
2008-06-26 07:50:36 51°15.335 2°43.154 21.4189 0.011645 0.062984 -1.627401
2008-06-26 07:50:41 51°15.334 2°43.128 21.3352 0.011645 0.062985 -1.627401
2008-06-26 07:50:47 51°15.333 2°43.097 21.3687 0.011645 0.062986 -1.627401
2008-06-26 07:50:51 51°15.333 2°43.077 21.3924 0.011645 0.062988 -1.627401
2008-06-26 07:50:56 51°15.333 2°43.051 21.4144 0.011645 0.062989 -1.627401
2008-06-26 07:51:01 51°15.331 2°43.025 21.4279 0.011645 0.062989 -1.627401
2008-06-26 07:51:07 51°15.33 2°42.994 21.4322 0.011645 0.062989 -1.627401
2008-06-26 07:51:11 51°15.33 2°42.974 21.3051 0.011645 0.06299 -1.627401
2008-06-26 07:51:16 51°15.329 2°42.948 21.3416 0.011645 0.062992 -1.627401
2008-06-26 07:51:21 51°15.329 2°42.922 21.3557 0.011645 0.062993 -1.627401
2008-06-26 07:51:27 51°15.328 2°42.891 21.3824 0.011645 0.062994 -1.627401
2008-06-26 07:51:31 51°15.327 2°42.87 21.3973 0.011645 0.062994 -1.627401
2008-06-26 07:51:36 51°15.327 2°42.845 21.4218 0.011645 0.062995 -1.627401
2008-06-26 07:51:41 51°15.326 2°42.819 21.42 0.011645 0.062996 -1.627401
2008-06-26 07:51:46 51°15.325 2°42.793 21.445 0.011645 0.062997 -1.627401
2008-06-26 07:51:51 51°15.324 2°42.768 21.4354 0.011645 0.062998 -1.627401
2008-06-26 07:51:56 51°15.323 2°42.742 21.46 0.011645 0.063 -1.627401
2008-06-26 07:52:01 51°15.322 2°42.716 21.454 0.011645 0.063001 -1.627401
2008-06-26 07:52:07 51°15.322 2°42.685 21.4676 0.011645 0.063001 -1.627401
2008-06-26 07:52:11 51°15.321 2°42.664 21.425 0.011645 0.063001 -1.627401
2008-06-26 07:52:16 51°15.321 2°42.638 21.424 0.011645 0.063002 -1.627401
2008-06-26 07:52:21 51°15.32 2°42.612 21.4227 0.011645 0.063004 -1.627401
2008-06-26 07:52:27 51°15.32 2°42.581 21.423 0.011645 0.063005 -1.627401
2008-06-26 07:52:31 51°15.32 2°42.56 21.4174 0.011645 0.063006 -1.627401
2008-06-26 07:52:36 51°15.32 2°42.534 21.4334 0.011645 0.063006 -1.627401
2008-06-26 07:52:41 51°15.321 2°42.508 21.4409 0.011645 0.063007 -1.627401
2008-06-26 07:52:46 51°15.321 2°42.482 21.4335 0.011645 0.063008 -1.627401
2008-06-26 07:52:51 51°15.321 2°42.456 21.3566 0.011645 0.063009 -1.627401
2008-06-26 07:52:56 51°15.322 2°42.43 21.334 0.011645 0.063011 -1.627401
2008-06-26 07:53:01 51°15.323 2°42.404 21.2708 0.011645 0.063011 -1.627401
2008-06-26 07:53:07 51°15.325 2°42.373 21.3057 0.011645 0.063012 -1.627401
2008-06-26 07:53:11 51°15.326 2°42.352 21.3373 0.011645 0.063013 -1.627401
2008-06-26 07:53:16 51°15.328 2°42.326 21.3108 0.011645 0.063014 -1.627401
2008-06-26 07:53:21 51°15.331 2°42.3 21.35 0.011645 0.063015 -1.627401
2008-06-26 07:53:27 51°15.333 2°42.269 21.2716 0.011645 0.063016 -1.627401
2008-06-26 07:53:31 51°15.336 2°42.249 21.3201 0.011645 0.063017 -1.627401
2008-06-26 07:53:37 51°15.341 2°42.218 21.363 0.011645 0.063017 -1.627401
2008-06-26 07:53:41 51°15.343 2°42.198 21.3927 0.011645 0.063018 -1.627401
2008-06-26 07:53:47 51°15.348 2°42.166 21.3967 0.011645 0.06302 -1.627401
2008-06-26 07:53:51 51°15.35 2°42.146 21.4208 0.011645 0.06302 -1.627401
2008-06-26 07:53:56 51°15.354 2°42.12 21.4259 0.011645 0.063021 -1.627401
2008-06-26 07:54:01 51°15.357 2°42.095 21.431 0.011645 0.063023 -1.627401
2008-06-26 07:54:07 51°15.361 2°42.064 21.4295 0.011645 0.063023 -1.627401
2008-06-26 07:54:11 51°15.365 2°42.044 21.449 0.011645 0.063024 -1.627401
2008-06-26 07:54:16 51°15.368 2°42.018 21.3356 0.011645 0.063024 -1.627401
2008-06-26 07:54:21 51°15.373 2°41.993 21.3736 0.011645 0.063026 -1.627401
2008-06-26 07:54:27 51°15.378 2°41.963 21.3793 0.011645 0.063028 -1.627401
2008-06-26 07:54:31 51°15.382 2°41.943 21.3572 0.011645 0.063028 -1.627401
2008-06-26 07:54:37 51°15.387 2°41.912 21.3549 0.011645 0.063028 -1.627401
2008-06-26 07:54:41 51°15.391 2°41.892 21.3408 0.011645 0.06303 -1.627401
2008-06-26 07:54:47 51°15.398 2°41.862 21.3831 0.011645 0.063031 -1.627401
2008-06-26 07:54:51 51°15.402 2°41.842 21.4014 0.011645 0.063032 -1.627401
2008-06-26 07:54:56 51°15.407 2°41.817 21.4301 0.011645 0.063033 -1.627401
2008-06-26 07:55:01 51°15.413 2°41.792 21.4318 0.011645 0.063033 -1.627401
2008-06-26 07:55:07 51°15.42 2°41.762 21.4536 0.011645 0.063034 -1.627401
2008-06-26 07:55:11 51°15.425 2°41.742 21.403 0.011645 0.063035 -1.627401
2008-06-26 07:55:17 51°15.432 2°41.712 21.3986 0.011645 0.063036 -1.627401
2008-06-26 07:55:21 51°15.437 2°41.692 21.4044 0.011645 0.063038 -1.627401
2008-06-26 07:55:27 51°15.444 2°41.662 21.3999 0.011645 0.063039 -1.627401
2008-06-26 07:55:31 51°15.45 2°41.643 21.4101 0.011645 0.06304 -1.627401
2008-06-26 07:55:37 51°15.457 2°41.613 21.3836 0.011645 0.06304 -1.627401
2008-06-26 07:55:41 51°15.462 2°41.593 21.4168 0.011645 0.06304 -1.627401
2008-06-26 07:55:46 51°15.467 2°41.568 21.3899 0.011645 0.063041 -1.627401
2008-06-26 07:55:53 51°15.476 2°41.533 21.4078 0.011645 0.063043 -1.627401
2008-06-26 07:55:57 51°15.481 2°41.514 21.4027 0.011645 0.063044 -1.627401
2008-06-26 07:56:01 51°15.485 2°41.494 21.3644 0.011645 0.063044 -1.627401
2008-06-26 07:56:07 51°15.493 2°41.465 21.3723 0.011645 0.063044 -1.627401
2008-06-26 07:56:11 51°15.498 2°41.445 21.3828 0.011645 0.063046 -1.627401
2008-06-26 07:56:17 51°15.506 2°41.415 21.4198 0.011645 0.063047 -1.627401
2008-06-26 07:56:21 51°15.51 2°41.395 21.4171 0.011645 0.063048 -1.627401
2008-06-26 07:56:27 51°15.518 2°41.366 21.4401 0.011645 0.063049 -1.627401
2008-06-26 07:56:31 51°15.523 2°41.346 21.4513 0.011645 0.06305 -1.627401
2008-06-26 07:56:37 51°15.53 2°41.316 21.4577 0.011645 0.06305 -1.627401
2008-06-26 07:56:41 51°15.535 2°41.297 21.4624 0.011645 0.063051 -1.627401
2008-06-26 07:56:47 51°15.542 2°41.267 21.4664 0.011645 0.063052 -1.627401
2008-06-26 07:56:51 51°15.547 2°41.247 21.4697 0.011645 0.063052 -1.627401
2008-06-26 07:56:57 51°15.555 2°41.217 21.3407 0.011645 0.063054 -1.627401
2008-06-26 07:57:01 51°15.56 2°41.198 21.3747 0.011645 0.063054 -1.627401
2008-06-26 07:57:07 51°15.567 2°41.168 21.4102 0.011645 0.063055 -1.627401
2008-06-26 07:57:11 51°15.572 2°41.149 21.4292 0.011645 0.063056 -1.627401
2008-06-26 07:57:17 51°15.58 2°41.119 21.4458 0.011645 0.063057 -1.627401
2008-06-26 07:57:21 51°15.585 2°41.099 21.4171 0.011645 0.063059 -1.627401
2008-06-26 07:57:27 51°15.593 2°41.07 21.348 0.011645 0.063059 -1.627401
2008-06-26 07:57:31 51°15.598 2°41.051 21.3859 0.011645 0.06306 -1.627401
2008-06-26 07:57:37 51°15.607 2°41.022 21.408 0.011645 0.06306 -1.627401
2008-06-26 07:57:41 51°15.613 2°41.003 21.4276 0.011645 0.063061 -1.627401
2008-06-26 07:57:47 51°15.621 2°40.974 21.4462 0.011645 0.063063 -1.627401
2008-06-26 07:57:51 51°15.628 2°40.955 21.455 0.011645 0.063063 -1.627401
2008-06-26 07:57:56 51°15.635 2°40.931 21.4673 0.011645 0.063064 -1.627401
2008-06-26 07:58:01 51°15.643 2°40.907 21.4794 0.011645 0.063064 -1.627401
2008-06-26 07:58:07 51°15.652 2°40.878 21.4732 0.011645 0.063064 -1.627401
2008-06-26 07:58:13 51°15.661 2°40.849 21.4825 0.011645 0.063066 -1.627401
2008-06-26 07:58:17 51°15.667 2°40.83 21.4858 0.011645 0.063068 -1.627401
2008-06-26 07:58:21 51°15.673 2°40.811 21.4862 0.011645 0.063068 -1.627401
2008-06-26 07:58:27 51°15.682 2°40.782 21.4905 0.011645 0.063068 -1.627401
2008-06-26 07:58:31 51°15.688 2°40.763 21.4552 0.011645 0.063068 -1.627401
2008-06-26 07:58:37 51°15.698 2°40.735 21.4631 0.011645 0.06307 -1.627401
2008-06-26 07:58:41 51°15.705 2°40.716 21.3509 0.011645 0.063071 -1.627401
2008-06-26 07:58:47 51°15.715 2°40.689 21.3433 0.011645 0.063071 -1.627401
2008-06-26 07:58:51 51°15.721 2°40.67 21.3918 0.011645 0.063073 -1.662225
2008-06-26 07:58:57 51°15.731 2°40.642 21.4153 0.011645 0.063074 -1.627401
2008-06-26 07:59:01 51°15.738 2°40.623 21.3476 0.011645 0.063075 -1.627401
2008-06-26 07:59:07 51°15.748 2°40.595 21.3887 0.011645 0.063075 -1.627401
2008-06-26 07:59:11 51°15.755 2°40.577 21.4213 0.011645 0.063076 -1.627401
2008-06-26 07:59:17 51°15.765 2°40.549 21.4464 0.011645 0.063077 -1.627401
2008-06-26 07:59:21 51°15.772 2°40.531 21.4624 0.011645 0.063078 -1.627401
2008-06-26 07:59:27 51°15.783 2°40.504 21.4795 0.011645 0.063079 -1.627401
2008-06-26 07:59:31 51°15.79 2°40.485 21.4817 0.011645 0.063079 -1.627401
2008-06-26 07:59:37 51°15.801 2°40.458 21.49 0.011645 0.063079 -1.627401
2008-06-26 07:59:41 51°15.807 2°40.439 21.4052 0.011645 0.06308 -1.627401
2008-06-26 07:59:47 51°15.818 2°40.412 21.4457 0.011645 0.063081 -1.627401
2008-06-26 07:59:51 51°15.825 2°40.393 21.4507 0.011645 0.063082 -1.627401
2008-06-26 07:59:57 51°15.835 2°40.365 21.4499 0.011645 0.063083 -1.627401
2008-06-26 08:00:01 51°15.841 2°40.347 21.4116 0.011645 0.063083 -1.627401
2008-06-26 08:00:07 51°15.852 2°40.319 21.4364 0.011645 0.063083 -1.627401
2008-06-26 08:00:13 51°15.862 2°40.291 21.4458 0.011645 0.063085 -1.627401
2008-06-26 08:00:17 51°15.868 2°40.272 21.464 0.011645 0.063086 -1.627401
2008-06-26 08:00:21 51°15.875 2°40.254 21.4668 0.011645 0.063087 -1.627401
2008-06-26 08:00:27 51°15.885 2°40.226 21.484 0.011645 0.063087 -1.627401
2008-06-26 08:00:31 51°15.892 2°40.207 21.4922 0.011645 0.063087 -1.627401
2008-06-26 08:00:37 51°15.902 2°40.179 21.5008 0.011645 0.063087 -1.627401
2008-06-26 08:00:41 51°15.909 2°40.161 21.5077 0.011645 0.063088 -1.627401
2008-06-26 08:00:47 51°15.918 2°40.132 21.5018 0.011645 0.063089 -1.627401
2008-06-26 08:00:51 51°15.924 2°40.113 21.5115 0.011645 0.06309 -1.627401
2008-06-26 08:00:57 51°15.933 2°40.085 21.5056 0.011645 0.063091 -1.627401
2008-06-26 08:01:01 51°15.939 2°40.066 21.515 0.011645 0.063092 -1.627401
2008-06-26 08:01:07 51°15.948 2°40.038 21.5175 0.011645 0.063092 -1.627401
2008-06-26 08:01:11 51°15.954 2°40.019 21.5133 0.011645 0.063093 -1.662225
2008-06-26 08:01:17 51°15.963 2°39.99 21.513 0.011645 0.063094 -1.627401
2008-06-26 08:01:21 51°15.969 2°39.971 21.518 0.011645 0.063095 -1.627401
2008-06-26 08:01:27 51°15.978 2°39.942 21.5212 0.011645 0.063095 -1.627401
2008-06-26 08:01:31 51°15.984 2°39.923 21.5115 0.011645 0.063096 -1.627401
2008-06-26 08:01:37 51°15.993 2°39.895 21.5182 0.011645 0.063096 -1.627401
2008-06-26 08:01:41 51°15.999 2°39.876 21.4948 0.011645 0.063097 -1.627401
2008-06-26 08:01:47 51°16.009 2°39.848 21.4148 0.011645 0.063098 -1.627401
2008-06-26 08:01:51 51°16.016 2°39.829 21.431 0.011645 0.063099 -1.627401
2008-06-26 08:01:57 51°16.026 2°39.801 21.468 0.011645 0.063099 -1.627401
2008-06-26 08:02:01 51°16.032 2°39.783 21.4456 0.011645 0.0631 -1.627401
2008-06-26 08:02:07 51°16.042 2°39.755 21.4626 0.011645 0.0631 -1.627401
2008-06-26 08:02:11 51°16.049 2°39.737 21.4826 0.011645 0.063102 -1.627401
2008-06-26 08:02:17 51°16.058 2°39.708 21.4872 0.011645 0.063103 -1.627401
2008-06-26 08:02:21 51°16.064 2°39.689 21.5068 0.011645 0.063103 -1.627401
2008-06-26 08:02:27 51°16.073 2°39.661 21.502 0.011645 0.063104 -1.627401
2008-06-26 08:02:33 51°16.083 2°39.632 21.5156 0.011645 0.063105 -1.627401
2008-06-26 08:02:37 51°16.088 2°39.613 21.5265 0.011645 0.063105 -1.627401
2008-06-26 08:02:41 51°16.094 2°39.594 21.5214 0.011645 0.063106 -1.627401
2008-06-26 08:02:47 51°16.103 2°39.566 21.3819 0.011645 0.063107 -1.627401
2008-06-26 08:02:51 51°16.109 2°39.547 21.3629 0.011645 0.063107 -1.627401
2008-06-26 08:02:57 51°16.119 2°39.517 21.4052 0.011645 0.063109 -1.627401
2008-06-26 08:03:01 51°16.125 2°39.499 21.4401 0.011645 0.06311 -1.627401
2008-06-26 08:03:07 51°16.134 2°39.471 21.4612 0.011645 0.06311 -1.627401
2008-06-26 08:03:11 51°16.141 2°39.453 21.4796 0.011645 0.06311 -1.627401
2008-06-26 08:03:17 51°16.151 2°39.425 21.4951 0.011645 0.063111 -1.627401
2008-06-26 08:03:21 51°16.157 2°39.406 21.5008 0.011645 0.063112 -1.662225
2008-06-26 08:03:27 51°16.167 2°39.378 21.5127 0.011645 0.063113 -1.627401
2008-06-26 08:03:31 51°16.173 2°39.36 21.5218 0.011645 0.063114 -1.627401
2008-06-26 08:03:37 51°16.183 2°39.332 21.5238 0.011645 0.063114 -1.627401
2008-06-26 08:03:41 51°16.19 2°39.313 21.529 0.011645 0.063115 -1.627401
2008-06-26 08:03:47 51°16.199 2°39.285 21.533 0.011645 0.063116 -1.627401
2008-06-26 08:03:51 51°16.206 2°39.267 21.5368 0.011645 0.063116 -1.627401
2008-06-26 08:03:57 51°16.215 2°39.239 21.5392 0.011645 0.063117 -1.627401
2008-06-26 08:04:01 51°16.222 2°39.22 21.4919 0.011645 0.063119 -1.627401
2008-06-26 08:04:07 51°16.231 2°39.192 21.4843 0.011645 0.063119 -1.627401
2008-06-26 08:04:11 51°16.237 2°39.173 21.5089 0.011645 0.06312 -1.627401
2008-06-26 08:04:17 51°16.246 2°39.144 21.5171 0.011645 0.063121 -1.627401
2008-06-26 08:04:21 51°16.251 2°39.125 21.5106 0.011645 0.063122 -1.627401
2008-06-26 08:04:27 51°16.261 2°39.096 21.5409 0.011645 0.063123 -1.627401
2008-06-26 08:04:33 51°16.27 2°39.068 21.5237 0.011645 0.063124 -1.627401
2008-06-26 08:04:37 51°16.276 2°39.049 21.5342 0.011645 0.063124 -1.627401
2008-06-26 08:04:41 51°16.282 2°39.03 21.4888 0.011645 0.063124 -1.627401
2008-06-26 08:04:47 51°16.292 2°39.002 21.4454 0.011645 0.063125 -1.627401
2008-06-26 08:04:51 51°16.298 2°38.984 21.4783 0.011645 0.063126 -1.627401
2008-06-26 08:04:57 51°16.307 2°38.955 21.4952 0.011645 0.063127 -1.627401
2008-06-26 08:05:01 51°16.313 2°38.936 21.4981 0.011645 0.063128 -1.627401
2008-06-26 08:05:07 51°16.322 2°38.908 21.5153 0.011645 0.063128 -1.627401
2008-06-26 08:05:11 51°16.328 2°38.888 21.349 0.011645 0.063129 -1.627401
2008-06-26 08:05:17 51°16.337 2°38.86 21.3969 0.011645 0.063131 -1.627401
2008-06-26 08:05:21 51°16.342 2°38.841 21.4312 0.011645 0.063131 -1.627401
2008-06-26 08:05:27 51°16.351 2°38.812 21.4608 0.011645 0.063132 -1.627401
2008-06-26 08:05:31 51°16.357 2°38.793 21.4711 0.011645 0.063132 -1.627401
2008-06-26 08:05:37 51°16.366 2°38.765 21.4986 0.011645 0.063132 -1.627401
2008-06-26 08:05:41 51°16.372 2°38.746 21.4982 0.011645 0.063133 -1.627401
2008-06-26 08:05:47 51°16.381 2°38.718 21.5203 0.011645 0.063135 -1.627401
2008-06-26 08:05:51 51°16.387 2°38.699 21.528 0.011645 0.063135 -1.627401
2008-06-26 08:05:57 51°16.396 2°38.671 21.5446 0.011645 0.063136 -1.627401
2008-06-26 08:06:01 51°16.402 2°38.652 21.5285 0.011645 0.063137 -1.627401
2008-06-26 08:06:07 51°16.411 2°38.623 21.5366 0.011645 0.063137 -1.627401
2008-06-26 08:06:11 51°16.416 2°38.604 21.5132 0.011645 0.063138 -1.627401
2008-06-26 08:06:17 51°16.425 2°38.576 21.456 0.011645 0.06314 -1.627401
2008-06-26 08:06:21 51°16.431 2°38.557 21.4761 0.011645 0.06314 -1.627401
2008-06-26 08:06:27 51°16.44 2°38.528 21.4976 0.011645 0.06314 -1.627401
2008-06-26 08:06:31 51°16.446 2°38.509 21.52 0.011542 0.062628 -1.627401
2008-06-26 08:06:37 51°16.454 2°38.481 21.515 0.011542 0.062628 -1.627401
2008-06-26 08:06:41 51°16.46 2°38.462 21.521 0.011645 0.063143 -1.627401
2008-06-26 08:06:47 51°16.469 2°38.433 21.5382 0.011645 0.063144 -1.627401
2008-06-26 08:06:51 51°16.474 2°38.414 21.5283 0.011645 0.063145 -1.627401
2008-06-26 08:06:57 51°16.483 2°38.386 21.5552 0.011645 0.063145 -1.627401
2008-06-26 08:07:01 51°16.489 2°38.366 21.5467 0.011645 0.063147 -1.627401
2008-06-26 08:07:07 51°16.498 2°38.338 21.5538 0.011645 0.063147 -1.627401
2008-06-26 08:07:11 51°16.504 2°38.319 21.5609 0.011542 0.062634 -1.627401
2008-06-26 08:07:17 51°16.513 2°38.291 21.5556 0.011645 0.063148 -1.627401
2008-06-26 08:07:21 51°16.519 2°38.271 21.558 0.011645 0.06315 -1.627401
2008-06-26 08:07:27 51°16.527 2°38.243 21.5601 0.011542 0.062637 -1.627401
2008-06-26 08:07:31 51°16.533 2°38.224 21.5696 0.011542 0.062638 -1.627401
2008-06-26 08:07:37 51°16.542 2°38.196 21.5573 0.011542 0.062638 -1.627401
2008-06-26 08:07:41 51°16.548 2°38.176 21.5584 0.011542 0.062639 -1.627401
2008-06-26 08:07:47 51°16.557 2°38.148 21.5612 0.011645 0.063153 -1.627401
2008-06-26 08:07:51 51°16.563 2°38.129 21.5529 0.011542 0.062641 -1.627401
2008-06-26 08:07:57 51°16.572 2°38.1 21.5701 0.011542 0.062641 -1.627401
2008-06-26 08:08:01 51°16.578 2°38.081 21.5673 0.011542 0.062643 -1.627401
2008-06-26 08:08:07 51°16.587 2°38.052 21.5556 0.011542 0.062643 -1.627401
2008-06-26 08:08:11 51°16.593 2°38.032 21.5597 0.011645 0.063157 -1.627401
2008-06-26 08:08:17 51°16.603 2°38.004 21.5665 0.011645 0.063159 -1.627401
2008-06-26 08:08:21 51°16.609 2°37.984 21.4783 0.011542 0.062645 -1.627401
2008-06-26 08:08:27 51°16.618 2°37.956 21.506 0.011542 0.062646 -1.627401
2008-06-26 08:08:31 51°16.625 2°37.937 21.5125 0.011645 0.063161 -1.627401
2008-06-26 08:08:37 51°16.634 2°37.908 21.5229 0.011645 0.063161 -1.627401
2008-06-26 08:08:41 51°16.641 2°37.889 21.5376 0.011542 0.062648 -1.627401
2008-06-26 08:08:47 51°16.65 2°37.86 21.5475 0.011542 0.062649 -1.627401
2008-06-26 08:08:51 51°16.656 2°37.842 21.5522 0.011542 0.06265 -1.627401
2008-06-26 08:08:57 51°16.666 2°37.813 21.5578 0.011542 0.06265 -1.627401
2008-06-26 08:09:01 51°16.673 2°37.794 21.5604 0.011542 0.062652 -1.627401
2008-06-26 08:09:07 51°16.682 2°37.766 21.5589 0.011542 0.062652 -1.627401
2008-06-26 08:09:11 51°16.689 2°37.748 21.5637 0.011542 0.062654 -1.627401
2008-06-26 08:09:17 51°16.698 2°37.72 21.5616 0.011542 0.062654 -1.627401
2008-06-26 08:09:21 51°16.705 2°37.701 21.5764 0.011542 0.062655 -1.627401
2008-06-26 08:09:27 51°16.715 2°37.673 21.5699 0.011542 0.062656 -1.627401
2008-06-26 08:09:33 51°16.725 2°37.646 21.567 0.011542 0.062657 -1.627401
2008-06-26 08:09:37 51°16.732 2°37.627 21.58 0.011542 0.062657 -1.627401
2008-06-26 08:09:41 51°16.738 2°37.608 21.5702 0.011542 0.062658 -1.627401
2008-06-26 08:09:47 51°16.748 2°37.581 21.5383 0.011542 0.062659 -1.627401
2008-06-26 08:09:51 51°16.754 2°37.562 21.5383 0.011542 0.062661 -1.627401
2008-06-26 08:09:57 51°16.764 2°37.534 21.4332 0.011542 0.062662 -1.627401
2008-06-26 08:10:01 51°16.771 2°37.517 21.4655 0.011542 0.062662 -1.627401
2008-06-26 08:10:07 51°16.781 2°37.489 21.4937 0.011542 0.062662 -1.627401
2008-06-26 08:10:11 51°16.788 2°37.47 21.517 0.011542 0.062663 -1.627401
2008-06-26 08:10:17 51°16.797 2°37.443 21.5185 0.011542 0.062665 -1.627401
2008-06-26 08:10:21 51°16.804 2°37.424 21.5399 0.011542 0.062666 -1.627401
2008-06-26 08:10:27 51°16.814 2°37.397 21.552 0.011542 0.062666 -1.627401
2008-06-26 08:10:32 51°16.822 2°37.373 21.5594 0.011542 0.062667 -1.627401
2008-06-26 08:10:37 51°16.83 2°37.35 21.5587 0.011542 0.062667 -1.627401
2008-06-26 08:10:41 51°16.836 2°37.332 21.563 0.011542 0.062668 -1.627401
2008-06-26 08:10:47 51°16.846 2°37.304 21.5652 0.011542 0.06267 -1.627401
2008-06-26 08:10:51 51°16.852 2°37.286 21.5733 0.011542 0.062671 -1.627401
2008-06-26 08:10:57 51°16.862 2°37.258 21.5729 0.011542 0.062672 -1.627401
2008-06-26 08:11:01 51°16.868 2°37.239 21.5585 0.011542 0.062672 -1.627401
2008-06-26 08:11:07 51°16.878 2°37.212 21.4831 0.011542 0.062672 -1.627401
2008-06-26 08:11:11 51°16.884 2°37.193 21.5091 0.011542 0.062673 -1.627401
2008-06-26 08:11:17 51°16.893 2°37.165 21.5247 0.011542 0.062674 -1.627401
2008-06-26 08:11:21 51°16.899 2°37.146 21.5414 0.011542 0.062675 -1.627401
2008-06-26 08:11:27 51°16.909 2°37.119 21.548 0.011542 0.062676 -1.627401
2008-06-26 08:11:31 51°16.915 2°37.1 21.5624 0.011542 0.062677 -1.627401
2008-06-26 08:11:37 51°16.924 2°37.072 21.5656 0.011542 0.062677 -1.627401
2008-06-26 08:11:41 51°16.931 2°37.054 21.5647 0.011542 0.062678 -1.627401
2008-06-26 08:11:47 51°16.94 2°37.025 21.5746 0.011542 0.062679 -1.627401
2008-06-26 08:11:51 51°16.946 2°37.007 21.5818 0.011542 0.06268 -1.627401
2008-06-26 08:11:57 51°16.956 2°36.978 21.5819 0.011542 0.062681 -1.627401
2008-06-26 08:12:01 51°16.962 2°36.96 21.5891 0.011542 0.062681 -1.627401
2008-06-26 08:12:07 51°16.971 2°36.931 21.5804 0.011542 0.062681 -1.627401
2008-06-26 08:12:11 51°16.978 2°36.913 21.5858 0.011542 0.062683 -1.627401
2008-06-26 08:12:17 51°16.987 2°36.885 21.5947 0.011542 0.062684 -1.627401
2008-06-26 08:12:21 51°16.994 2°36.866 21.5892 0.011542 0.062685 -1.627401
2008-06-26 08:12:27 51°17.004 2°36.839 21.5986 0.011542 0.062686 -1.627401
2008-06-26 08:12:31 51°17.01 2°36.82 21.5945 0.011542 0.062687 -1.627401
2008-06-26 08:12:37 51°17.02 2°36.792 21.598 0.011542 0.062687 -1.627401
2008-06-26 08:12:41 51°17.026 2°36.773 21.5932 0.011542 0.062689 -1.627401
2008-06-26 08:12:47 51°17.035 2°36.745 21.5914 0.011542 0.062689 -1.627401
2008-06-26 08:12:51 51°17.042 2°36.726 21.5936 0.011542 0.06269 -1.627401
2008-06-26 08:12:57 51°17.051 2°36.698 21.5977 0.011542 0.062691 -1.662225
2008-06-26 08:13:01 51°17.058 2°36.679 21.6063 0.011542 0.062691 -1.662225
2008-06-26 08:13:07 51°17.067 2°36.651 21.6046 0.011542 0.062692 -1.627401
2008-06-26 08:13:11 51°17.073 2°36.633 21.6014 0.011542 0.062692 -1.627401
2008-06-26 08:13:17 51°17.082 2°36.604 21.5951 0.011542 0.062693 -1.627401
2008-06-26 08:13:21 51°17.089 2°36.586 21.4452 0.011542 0.062694 -1.627401
2008-06-26 08:13:27 51°17.098 2°36.558 21.4805 0.011542 0.062694 -1.627401
2008-06-26 08:13:31 51°17.105 2°36.539 21.507 0.011542 0.062696 -1.627401
2008-06-26 08:13:37 51°17.114 2°36.511 21.5299 0.011542 0.062696 -1.627401
2008-06-26 08:13:41 51°17.121 2°36.493 21.5544 0.011542 0.062696 -1.627401
2008-06-26 08:13:47 51°17.131 2°36.465 21.5737 0.011542 0.062697 -1.627401
2008-06-26 08:13:51 51°17.137 2°36.446 21.5665 0.011542 0.062697 -1.627401
2008-06-26 08:13:57 51°17.147 2°36.418 21.5876 0.011542 0.062698 -1.627401
2008-06-26 08:14:01 51°17.154 2°36.4 21.5912 0.011542 0.062699 -1.627401
2008-06-26 08:14:07 51°17.164 2°36.372 21.5975 0.011542 0.062699 -1.627401
2008-06-26 08:14:11 51°17.17 2°36.353 21.6004 0.011542 0.062699 -1.627401
2008-06-26 08:14:17 51°17.179 2°36.324 21.5955 0.011542 0.062701 -1.627401
2008-06-26 08:14:21 51°17.185 2°36.305 21.5939 0.011542 0.062702 -1.627401
2008-06-26 08:14:27 51°17.194 2°36.277 21.5938 0.011542 0.062702 -1.627401
2008-06-26 08:14:31 51°17.201 2°36.258 21.5977 0.011542 0.062703 -1.627401
2008-06-26 08:14:37 51°17.21 2°36.23 21.6031 0.011542 0.062703 -1.627401
2008-06-26 08:14:41 51°17.216 2°36.211 21.6025 0.011542 0.062704 -1.627401
2008-06-26 08:14:47 51°17.225 2°36.182 21.5938 0.011542 0.062705 -1.627401
2008-06-26 08:14:51 51°17.231 2°36.163 21.6027 0.011542 0.062705 -1.627401
2008-06-26 08:14:57 51°17.24 2°36.135 21.5991 0.011542 0.062706 -1.627401
2008-06-26 08:15:01 51°17.246 2°36.116 21.5966 0.011542 0.062706 -1.627401
2008-06-26 08:15:07 51°17.255 2°36.087 21.6084 0.011542 0.062706 -1.627401
2008-06-26 08:15:12 51°17.262 2°36.063 21.5994 0.011542 0.062707 -1.627401
2008-06-26 08:15:17 51°17.269 2°36.039 21.5943 0.011542 0.062708 -1.627401
2008-06-26 08:15:21 51°17.275 2°36.02 21.613 0.011542 0.062708 -1.627401
2008-06-26 08:15:27 51°17.285 2°35.991 21.6061 0.011542 0.062708 -1.627401
2008-06-26 08:15:31 51°17.291 2°35.972 21.6111 0.011542 0.062708 -1.627401
2008-06-26 08:15:37 51°17.301 2°35.944 21.6182 0.011542 0.062708 -1.627401
2008-06-26 08:15:41 51°17.307 2°35.925 21.5395 0.011542 0.06271 -1.627401
2008-06-26 08:15:47 51°17.317 2°35.897 21.5523 0.011542 0.06271 -1.627401
2008-06-26 08:15:51 51°17.323 2°35.878 21.5751 0.011542 0.062711 -1.627401
2008-06-26 08:15:57 51°17.334 2°35.85 21.589 0.011542 0.062712 -1.627401
2008-06-26 08:16:01 51°17.34 2°35.831 21.592 0.011542 0.062712 -1.627401
2008-06-26 08:16:07 51°17.35 2°35.803 21.6047 0.011542 0.062712 -1.627401
2008-06-26 08:16:13 51°17.36 2°35.775 21.6106 0.011542 0.062712 -1.627401
2008-06-26 08:16:17 51°17.366 2°35.756 21.6163 0.011542 0.062714 -1.627401
2008-06-26 08:16:21 51°17.372 2°35.738 21.6202 0.011542 0.062714 -1.627401
2008-06-26 08:16:27 51°17.382 2°35.709 21.5601 0.011542 0.062716 -1.627401
2008-06-26 08:16:32 51°17.39 2°35.686 21.5936 0.011542 0.062716 -1.627401
2008-06-26 08:16:37 51°17.397 2°35.663 21.6023 0.011542 0.062716 -1.627401
2008-06-26 08:16:42 51°17.405 2°35.639 21.5962 0.011542 0.062717 -1.627401
2008-06-26 08:16:47 51°17.412 2°35.615 21.5989 0.005573 0.033487 -1.627401
2008-06-26 08:16:52 51°17.419 2°35.591 21.6037 0.011542 0.062718 -1.627401
2008-06-26 08:16:57 51°17.426 2°35.567 21.6085 0.011542 0.062718 -1.627401
2008-06-26 08:17:01 51°17.432 2°35.547 21.6066 0.011542 0.062719 -1.627401
2008-06-26 08:17:07 51°17.441 2°35.518 21.6138 0.011542 0.062719 -1.627401
2008-06-26 08:17:11 51°17.446 2°35.499 21.6167 0.011542 0.06272 -1.627401
2008-06-26 08:17:17 51°17.455 2°35.471 21.6345 0.011542 0.06272 -1.627401
2008-06-26 08:17:21 51°17.461 2°35.452 21.6214 0.011542 0.06272 -1.627401
2008-06-26 08:17:27 51°17.47 2°35.424 21.6309 0.011542 0.062721 -1.627401
2008-06-26 08:17:31 51°17.476 2°35.405 21.6367 0.011542 0.062721 -1.627401
2008-06-26 08:17:37 51°17.485 2°35.376 21.6294 0.011542 0.062721 -1.627401
2008-06-26 08:17:42 51°17.492 2°35.352 21.6242 0.011542 0.062723 -1.627401
2008-06-26 08:17:47 51°17.499 2°35.328 21.6278 0.011542 0.062722 -1.627401
2008-06-26 08:17:52 51°17.507 2°35.304 21.6344 0.011542 0.062723 -1.627401
2008-06-26 08:17:57 51°17.514 2°35.281 21.6268 0.011542 0.062724 -1.627401
2008-06-26 08:18:02 51°17.522 2°35.257 21.6312 0.011542 0.062724 -1.662225
2008-06-26 08:18:07 51°17.529 2°35.232 21.6204 0.011542 0.062724 -1.662225
2008-06-26 08:18:12 51°17.537 2°35.208 21.624 0.011542 0.062724 -1.627401
2008-06-26 08:18:17 51°17.544 2°35.184 21.6193 0.011542 0.062725 -1.627401
2008-06-26 08:18:21 51°17.55 2°35.165 21.6146 0.011542 0.062726 -1.627401
2008-06-26 08:18:27 51°17.559 2°35.136 21.6131 0.011542 0.062727 -1.627401
2008-06-26 08:18:31 51°17.566 2°35.118 21.6209 0.011542 0.062726 -1.627401
2008-06-26 08:18:37 51°17.575 2°35.09 21.6244 0.011542 0.062726 -1.627401
2008-06-26 08:18:41 51°17.582 2°35.072 21.6217 0.011542 0.062727 -1.662225
2008-06-26 08:18:47 51°17.592 2°35.044 21.6305 0.011542 0.062727 -1.627401
2008-06-26 08:18:51 51°17.598 2°35.025 21.5782 0.011542 0.062728 -1.627401
2008-06-26 08:18:57 51°17.608 2°34.997 21.5447 0.011542 0.062728 -1.627401
2008-06-26 08:19:01 51°17.615 2°34.979 21.5628 0.011542 0.06273 -1.627401
2008-06-26 08:19:07 51°17.624 2°34.95 21.5748 0.011542 0.06273 -1.627401
2008-06-26 08:19:11 51°17.63 2°34.931 21.5979 0.011542 0.062732 -1.627401
2008-06-26 08:19:17 51°17.64 2°34.903 21.5445 0.011542 0.062732 -1.627401
2008-06-26 08:19:21 51°17.646 2°34.884 21.5663 0.011542 0.062732 -1.627401
2008-06-26 08:19:27 51°17.655 2°34.856 21.5195 0.011542 0.062734 -1.627401
2008-06-26 08:19:31 51°17.661 2°34.837 21.5573 0.011542 0.062733 -1.627401
2008-06-26 08:19:37 51°17.67 2°34.809 21.5663 0.011542 0.062733 -1.627401
2008-06-26 08:19:41 51°17.676 2°34.791 21.5838 0.011542 0.062735 -1.627401
2008-06-26 08:19:47 51°17.685 2°34.764 21.6046 0.011542 0.062734 -1.627401
2008-06-26 08:19:51 51°17.69 2°34.745 21.6092 0.011542 0.062736 -1.627401
2008-06-26 08:19:57 51°17.699 2°34.716 21.614 0.011542 0.062736 -1.627401
2008-06-26 08:20:01 51°17.704 2°34.697 21.6177 0.011542 0.062737 -1.627401
2008-06-26 08:20:07 51°17.712 2°34.668 21.6266 0.011542 0.062737 -1.627401
2008-06-26 08:20:11 51°17.718 2°34.649 21.6308 0.011542 0.062738 -1.627401
2008-06-26 08:20:17 51°17.726 2°34.62 21.6366 0.011542 0.062739 -1.627401
2008-06-26 08:20:21 51°17.731 2°34.601 21.5877 0.011542 0.06274 -1.627401
2008-06-26 08:20:27 51°17.739 2°34.572 21.5962 0.011542 0.06274 -1.627401
2008-06-26 08:20:33 51°17.746 2°34.543 21.6076 0.011542 0.062741 -1.627401
2008-06-26 08:20:37 51°17.751 2°34.524 21.6185 0.011542 0.062741 -1.627401
2008-06-26 08:20:42 51°17.757 2°34.5 21.6243 0.011542 0.062741 -1.627401
2008-06-26 08:20:47 51°17.763 2°34.475 21.6347 0.011542 0.062741 -1.627401
2008-06-26 08:20:52 51°17.769 2°34.452 21.6305 0.011542 0.062743 -1.627401
2008-06-26 08:20:57 51°17.775 2°34.428 21.6429 0.011542 0.062743 -1.627401
2008-06-26 08:21:01 51°17.779 2°34.408 21.6308 0.011542 0.062744 -1.627401
2008-06-26 08:21:07 51°17.786 2°34.384 21.6468 0.011542 0.062744 -1.627401
2008-06-26 08:21:11 51°17.79 2°34.368 21.6523 0.011542 0.062745 -1.627401
2008-06-26 08:21:17 51°17.795 2°34.347 21.6514 0.011542 0.062745 -1.627401
2008-06-26 08:21:21 51°17.797 2°34.333 21.6572 0.011542 0.062747 -1.627401
2008-06-26 08:21:27 51°17.8 2°34.316 21.6617 0.011542 0.062748 -1.627401
2008-06-26 08:21:31 51°17.802 2°34.305 21.6539 0.011542 0.062748 -1.627401
2008-06-26 08:21:37 51°17.803 2°34.29 21.6511 0.011542 0.062748 -1.627401
2008-06-26 08:21:41 51°17.803 2°34.282 21.6505 0.011542 0.062749 -1.627401
2008-06-26 08:21:47 51°17.804 2°34.271 21.6543 0.011542 0.062749 -1.627401
2008-06-26 08:21:51 51°17.803 2°34.264 21.644 0.011542 0.06275 -1.627401
2008-06-26 08:21:57 51°17.803 2°34.256 21.6529 0.011542 0.062751 -1.627401
2008-06-26 08:22:01 51°17.802 2°34.252 21.6477 0.011542 0.062752 -1.627401
2008-06-26 08:22:07 51°17.802 2°34.248 21.6553 0.011542 0.062752 -1.627401
2008-06-26 08:22:11 51°17.802 2°34.245 21.6539 0.011542 0.062752 -1.627401
2008-06-26 08:22:17 51°17.802 2°34.243 21.658 0.011542 0.062752 -1.627401
2008-06-26 08:22:21 51°17.802 2°34.242 21.6431 0.011542 0.062752 -1.627401
2008-06-26 08:22:27 51°17.802 2°34.242 21.6474 0.011542 0.062753 -1.627401
2008-06-26 08:22:31 51°17.802 2°34.242 21.6522 0.011542 0.062753 -1.627401
2008-06-26 08:22:37 51°17.802 2°34.242 21.6514 0.011542 0.062753 -1.627401
2008-06-26 08:22:41 51°17.802 2°34.243 21.656 0.011542 0.062753 -1.627401
2008-06-26 08:22:47 51°17.802 2°34.243 21.6577 0.011542 0.062753 -1.627401
2008-06-26 08:22:52 51°17.803 2°34.244 21.6596 0.011542 0.062754 -1.627401
2008-06-26 08:22:56 51°17.804 2°34.245 21.661 0.011542 0.062755 -1.627401
2008-06-26 08:23:01 51°17.804 2°34.246 21.6583 0.011542 0.062755 -1.627401
2008-06-26 08:23:07 51°17.804 2°34.247 21.6637 0.011542 0.062755 -1.627401
2008-06-26 08:23:11 51°17.805 2°34.248 21.6658 0.011542 0.062756 -1.627401
2008-06-26 08:23:16 51°17.805 2°34.249 21.6693 0.011542 0.062756 -1.627401
2008-06-26 08:23:21 51°17.805 2°34.251 21.6573 0.011542 0.062757 -1.627401
2008-06-26 08:23:27 51°17.806 2°34.252 21.6702 0.011542 0.062756 -1.627401
2008-06-26 08:23:32 51°17.807 2°34.254 21.6699 0.011542 0.062758 -1.627401
2008-06-26 08:23:37 51°17.808 2°34.255 21.6736 0.011542 0.062758 -1.627401
2008-06-26 08:23:42 51°17.808 2°34.256 21.6748 0.011542 0.062758 -1.627401